GEFSSGP_prec_meanprecacc_210.txt.gz
Total_Precipitation_Accumulation
0.02 0.09 0.26 0.54 0.90 1.42 1.64 1.13 0.85 0.75 0.65 0.59 0.48 0.40 0.44 0.61 0.77 1.24 0.87 0.49 0.31 0.29 0.31 0.38 0.43 0.33 0.28 0.29 0.33 0.33 0.35 0.34 0.33 0.35 0.40 0.45 0.58 0.63 0.63 0.69 0.83 0.88 0.84 0.78 0.81 0.73 0.65 0.64 0.54
0.03 0.11 0.31 0.69 1.28 1.90 1.64 0.92 0.71 0.69 0.56 0.55 0.53 0.47 0.51 0.55 0.45 0.43 0.50 0.41 0.22 0.19 0.26 0.29 0.35 0.34 0.29 0.27 0.31 0.33 0.35 0.35 0.37 0.42 0.44 0.49 0.54 0.57 0.57 0.66 0.80 0.88 0.80 0.73 0.62 0.56 0.50 0.46 0.38
0.08 0.18 0.34 0.70 1.17 1.68 1.26 0.75 0.57 0.55 0.52 0.58 0.70 0.62 0.64 0.62 0.51 0.51 0.49 0.33 0.24 0.22 0.23 0.33 0.38 0.37 0.33 0.26 0.28 0.31 0.36 0.37 0.39 0.44 0.48 0.51 0.53 0.55 0.54 0.58 0.71 0.73 0.62 0.54 0.50 0.50 0.41 0.36 0.30
0.10 0.26 0.42 0.61 0.77 0.72 0.72 0.72 0.56 0.64 0.70 0.63 0.70 0.81 0.72 0.56 0.52 0.60 0.60 0.43 0.30 0.29 0.27 0.34 0.39 0.37 0.38 0.32 0.29 0.33 0.36 0.40 0.42 0.50 0.52 0.52 0.56 0.58 0.54 0.54 0.63 0.62 0.55 0.46 0.48 0.49 0.42 0.35 0.31
0.11 0.28 0.45 0.56 0.68 0.54 0.53 0.58 0.53 0.62 0.64 0.62 0.65 0.95 0.95 0.73 0.59 0.60 0.57 0.54 0.41 0.49 0.44 0.44 0.47 0.46 0.43 0.36 0.32 0.32 0.36 0.43 0.48 0.53 0.52 0.51 0.54 0.55 0.52 0.53 0.54 0.49 0.46 0.44 0.46 0.48 0.41 0.43 0.44
0.10 0.24 0.42 0.45 0.54 0.44 0.47 0.54 0.53 0.58 0.63 0.70 0.82 1.12 1.14 0.93 0.85 0.82 0.82 0.73 0.55 0.61 0.61 0.56 0.57 0.55 0.53 0.44 0.40 0.41 0.41 0.43 0.49 0.51 0.49 0.49 0.49 0.51 0.51 0.51 0.46 0.37 0.34 0.38 0.46 0.51 0.45 0.45 0.52
0.08 0.18 0.33 0.36 0.45 0.46 0.46 0.44 0.49 0.65 0.85 0.92 1.03 1.30 1.20 1.37 1.29 1.15 1.17 1.07 0.82 0.75 0.71 0.65 0.62 0.56 0.59 0.56 0.50 0.51 0.51 0.50 0.51 0.51 0.48 0.47 0.47 0.49 0.49 0.48 0.43 0.38 0.35 0.36 0.41 0.46 0.45 0.43 0.47
0.05 0.12 0.20 0.29 0.40 0.44 0.41 0.40 0.41 0.54 0.89 0.92 0.94 1.11 1.36 1.29 1.34 1.59 1.59 1.57 1.31 1.14 0.91 0.77 0.77 0.76 0.70 0.67 0.60 0.60 0.57 0.56 0.58 0.54 0.55 0.56 0.58 0.55 0.54 0.51 0.47 0.46 0.45 0.41 0.41 0.46 0.44 0.46 0.46
0.05 0.13 0.16 0.22 0.30 0.32 0.28 0.32 0.37 0.48 0.63 0.82 0.97 0.93 1.04 0.99 1.18 1.60 1.86 2.05 1.96 1.53 1.28 1.05 0.93 0.90 0.85 0.76 0.69 0.77 0.78 0.77 0.76 0.74 0.72 0.70 0.79 0.78 0.74 0.66 0.70 0.67 0.66 0.68 0.67 0.71 0.66 0.64 0.56
0.05 0.10 0.12 0.14 0.19 0.22 0.20 0.24 0.29 0.51 0.91 1.25 1.31 1.07 1.04 1.14 1.53 1.83 1.90 1.96 2.13 1.71 1.39 1.27 1.16 1.04 0.96 0.81 0.88 1.13 1.04 0.97 1.00 1.06 0.98 1.04 1.12 1.12 0.85 0.91 1.10 1.19 1.25 1.22 1.29 1.41 1.14 0.94 1.00
0.03 0.05 0.07 0.10 0.14 0.15 0.17 0.21 0.26 0.44 0.91 1.24 1.34 1.25 1.35 1.41 1.77 2.12 2.24 2.07 2.14 1.97 1.62 1.49 1.37 1.28 1.29 1.35 1.20 1.26 1.28 1.28 1.28 1.29 1.30 1.34 1.17 1.09 1.08 1.25 1.49 1.64 1.68 1.64 1.93 1.98 1.51 1.58 1.94
0.01 0.02 0.04 0.08 0.11 0.16 0.15 0.18 0.33 0.47 0.76 1.03 1.10 1.53 1.73 1.67 1.99 2.18 2.31 2.42 2.37 2.26 1.95 1.74 1.63 1.62 1.67 1.61 1.52 1.39 1.41 1.41 1.46 1.54 1.51 1.61 1.71 1.64 1.68 1.80 1.83 1.97 2.10 2.34 2.43 2.57 2.23 2.21 2.07
0.01 0.01 0.03 0.06 0.10 0.14 0.16 0.20 0.26 0.53 0.68 0.88 1.07 1.46 1.66 1.60 1.99 2.30 2.63 2.71 2.70 2.45 2.15 2.09 1.85 1.75 1.79 1.87 1.91 1.73 1.82 1.76 1.74 1.83 1.91 1.96 2.17 2.18 2.20 2.17 2.17 2.03 2.22 2.43 2.79 2.75 2.97 2.92 2.58
0.01 0.03 0.04 0.07 0.09 0.14 0.27 0.36 0.36 0.67 0.74 0.88 1.12 1.53 1.62 1.57 1.80 1.82 2.21 2.55 2.65 2.41 2.25 2.20 2.07 2.10 2.17 2.12 2.15 2.21 2.24 2.24 2.15 2.10 2.13 2.19 2.40 2.63 2.62 2.53 2.49 2.29 2.30 2.61 2.87 2.94 3.39 3.24 3.08
0.02 0.07 0.09 0.11 0.14 0.22 0.32 0.52 0.57 0.79 0.86 1.06 1.10 1.30 1.45 1.42 1.54 1.67 1.94 2.27 2.38 2.20 2.30 2.45 2.58 2.77 2.82 2.77 2.71 2.64 2.66 2.60 2.60 2.71 2.70 2.74 2.72 2.78 2.69 2.70 2.59 2.61 2.67 2.81 2.87 3.03 3.41 3.18 3.09
0.04 0.13 0.22 0.23 0.22 0.27 0.46 0.92 0.88 0.97 0.95 1.01 1.03 1.17 1.28 1.32 1.45 1.73 1.90 2.13 2.30 2.24 2.35 2.59 2.68 3.04 3.20 3.22 3.26 3.18 3.11 2.97 3.04 3.04 3.04 3.03 2.95 2.82 2.90 2.74 2.57 2.74 2.83 2.98 3.18 3.17 3.27 3.35 3.35
0.07 0.15 0.23 0.28 0.20 0.22 0.39 0.76 0.75 0.88 1.07 0.97 0.98 1.04 1.09 1.15 1.26 1.45 1.71 1.93 2.24 2.58 2.84 3.17 3.22 3.16 3.25 3.43 3.54 3.33 3.25 3.12 3.03 2.94 2.96 2.85 2.74 2.74 3.05 2.89 2.91 2.97 3.15 3.06 2.85 3.26 3.39 3.39 3.39
0.07 0.13 0.19 0.24 0.23 0.21 0.35 0.56 0.71 0.81 0.93 1.01 1.01 1.10 1.18 1.27 1.49 1.71 2.02 2.20 2.43 2.92 3.28 3.45 3.52 3.70 3.96 4.13 4.02 3.77 3.36 3.07 2.94 2.84 2.73 2.65 2.69 2.71 2.99 2.80 2.85 3.06 3.32 3.38 3.36 3.52 3.42 3.28 3.34
0.06 0.13 0.17 0.21 0.27 0.29 0.38 0.47 0.77 0.98 1.07 1.19 1.33 1.54 1.74 1.92 2.00 2.17 2.47 2.68 2.79 2.93 3.17 3.46 3.88 4.22 4.29 4.10 4.00 3.90 3.55 3.27 2.94 2.63 2.55 2.64 2.56 2.64 2.93 2.68 3.02 3.12 3.25 3.40 3.40 3.55 3.43 3.22 3.34
0.07 0.14 0.19 0.24 0.29 0.29 0.43 0.54 0.78 1.16 1.29 1.25 1.28 1.32 1.40 1.79 2.00 2.22 2.48 2.59 2.56 2.76 3.05 3.46 3.88 4.20 4.10 4.16 4.32 4.22 3.97 3.35 2.99 2.81 2.68 2.62 2.59 2.59 2.67 3.03 3.05 3.14 3.29 3.32 3.22 3.26 3.11 2.88 3.18
0.09 0.13 0.17 0.24 0.35 0.32 0.42 0.77 0.97 1.26 1.39 1.27 1.24 1.25 1.20 1.37 1.64 1.80 1.96 2.13 2.39 2.81 3.21 3.46 3.73 3.88 3.92 4.07 4.18 3.90 3.68 3.18 2.99 2.99 2.83 2.69 2.73 2.73 2.81 3.00 3.08 3.06 2.95 3.05 3.18 3.05 2.94 2.80 2.88
0.11 0.10 0.11 0.18 0.31 0.44 0.53 1.07 1.36 1.56 1.43 1.18 1.21 1.27 1.37 1.46 1.49 1.58 1.70 2.01 2.37 2.75 3.25 3.66 3.67 3.69 3.62 3.75 3.83 3.63 3.28 2.99 2.86 2.86 2.64 2.53 2.48 2.50 2.60 2.66 2.80 2.89 2.83 2.87 2.79 2.78 2.82 2.81 2.64
0.08 0.08 0.09 0.16 0.25 0.41 0.58 0.97 1.41 1.49 1.38 1.14 1.05 1.23 1.45 1.40 1.38 1.48 1.57 1.83 2.07 2.46 2.85 3.24 3.52 3.58 3.44 3.40 3.41 3.48 3.25 2.94 2.73 2.63 2.50 2.44 2.43 2.27 2.25 2.35 2.52 2.56 2.47 2.45 2.60 2.82 2.78 2.65 2.51
0.07 0.09 0.14 0.24 0.41 0.72 0.57 0.71 1.14 1.36 1.24 1.02 1.01 1.15 1.29 1.45 1.45 1.52 1.74 1.91 2.03 2.30 2.62 2.85 3.08 3.12 3.06 2.97 2.97 3.03 3.00 2.92 2.65 2.44 2.41 2.41 2.32 2.15 2.07 2.09 2.19 2.23 2.22 2.19 2.24 2.38 2.43 2.41 2.52
0.08 0.18 0.50 0.83 1.11 0.98 0.62 0.73 1.10 1.04 0.89 0.79 0.86 1.10 1.33 1.56 1.55 1.64 1.81 1.92 1.99 2.11 2.26 2.37 2.48 2.53 2.46 2.45 2.40 2.40 2.44 2.48 2.32 2.22 2.28 2.28 2.19 2.06 2.01 1.96 1.91 1.89 1.90 1.98 2.18 2.20 2.17 2.25 2.37
0.11 0.21 0.57 0.76 0.89 0.86 0.81 1.04 1.10 0.87 0.74 0.74 0.80 0.97 1.23 1.40 1.43 1.54 1.62 1.54 1.52 1.59 1.70 1.82 1.89 1.92 1.88 1.94 2.01 2.03 2.16 2.13 2.05 2.14 2.11 2.12 2.08 2.04 1.93 1.77 1.68 1.63 1.64 1.72 1.94 2.09 2.06 2.14 2.20
0.20 0.26 0.27 0.44 0.54 0.88 1.08 1.20 1.09 0.79 0.91 0.89 0.94 1.01 1.06 1.12 1.15 1.14 1.15 1.19 1.28 1.34 1.38 1.44 1.55 1.60 1.53 1.56 1.69 1.77 1.80 1.84 1.86 1.94 1.93 1.83 1.81 1.69 1.64 1.58 1.54 1.48 1.52 1.59 1.65 1.75 1.73 1.81 1.85
0.21 0.34 0.46 0.67 0.87 1.02 1.10 1.38 1.52 1.34 1.26 1.14 1.21 1.42 1.24 0.98 0.97 0.98 0.93 0.96 0.99 1.03 1.17 1.33 1.44 1.57 1.57 1.49 1.50 1.45 1.51 1.55 1.70 1.77 1.70 1.69 1.70 1.63 1.51 1.47 1.43 1.39 1.36 1.39 1.46 1.48 1.51 1.52 1.54
0.33 0.41 0.51 0.65 0.74 0.96 1.20 1.38 1.19 1.30 1.26 1.22 1.23 1.27 1.09 0.78 0.67 0.73 0.73 0.73 0.78 0.88 1.02 1.15 1.40 1.56 1.47 1.31 1.31 1.36 1.34 1.41 1.51 1.56 1.50 1.53 1.58 1.62 1.57 1.49 1.45 1.35 1.26 1.25 1.27 1.25 1.34 1.34 1.33
0.28 0.41 0.52 0.69 0.77 0.84 1.03 1.16 0.77 0.90 0.90 0.91 0.99 0.88 0.73 0.61 0.52 0.63 0.64 0.59 0.65 0.71 0.81 0.96 1.14 1.28 1.25 1.21 1.23 1.33 1.42 1.40 1.34 1.32 1.30 1.31 1.34 1.33 1.31 1.29 1.34 1.36 1.35 1.32 1.28 1.23 1.21 1.24 1.25

GEFSSGP_prec_meanprecacc_216.txt.gz
Total_Precipitation_Accumulation
0.02 0.09 0.26 0.54 0.94 1.47 1.67 1.14 0.85 0.76 0.65 0.59 0.48 0.40 0.46 0.67 0.90 1.43 1.08 0.65 0.43 0.37 0.38 0.43 0.49 0.39 0.33 0.34 0.37 0.38 0.41 0.40 0.38 0.39 0.43 0.48 0.62 0.70 0.71 0.78 0.96 1.04 1.02 0.95 0.94 0.80 0.70 0.70 0.60
0.03 0.11 0.31 0.70 1.33 1.97 1.68 0.94 0.73 0.70 0.56 0.55 0.53 0.48 0.52 0.59 0.52 0.54 0.65 0.52 0.31 0.27 0.32 0.33 0.39 0.40 0.35 0.33 0.35 0.37 0.39 0.39 0.41 0.47 0.50 0.52 0.59 0.64 0.69 0.81 0.97 1.04 0.95 0.83 0.69 0.61 0.54 0.51 0.42
0.08 0.18 0.35 0.72 1.20 1.72 1.29 0.77 0.58 0.56 0.52 0.58 0.71 0.62 0.66 0.67 0.57 0.58 0.58 0.41 0.30 0.27 0.28 0.37 0.41 0.41 0.37 0.31 0.34 0.36 0.39 0.41 0.43 0.49 0.52 0.54 0.57 0.60 0.61 0.65 0.79 0.80 0.69 0.59 0.54 0.53 0.44 0.38 0.32
0.10 0.26 0.43 0.62 0.79 0.73 0.73 0.73 0.56 0.65 0.70 0.63 0.71 0.83 0.76 0.61 0.57 0.65 0.65 0.48 0.34 0.33 0.31 0.37 0.42 0.40 0.41 0.36 0.33 0.37 0.39 0.44 0.47 0.55 0.57 0.55 0.61 0.63 0.60 0.59 0.67 0.66 0.59 0.50 0.53 0.53 0.44 0.36 0.33
0.11 0.29 0.48 0.58 0.69 0.54 0.54 0.59 0.53 0.62 0.65 0.63 0.68 1.00 1.01 0.76 0.61 0.62 0.60 0.57 0.44 0.53 0.48 0.47 0.50 0.49 0.46 0.38 0.34 0.35 0.39 0.47 0.51 0.57 0.58 0.56 0.59 0.60 0.57 0.57 0.57 0.52 0.49 0.47 0.50 0.51 0.43 0.44 0.45
0.11 0.26 0.48 0.51 0.56 0.44 0.48 0.54 0.53 0.59 0.64 0.72 0.86 1.17 1.19 0.96 0.88 0.84 0.84 0.75 0.58 0.63 0.63 0.59 0.60 0.58 0.55 0.46 0.42 0.43 0.44 0.47 0.51 0.54 0.53 0.54 0.56 0.56 0.55 0.54 0.49 0.40 0.37 0.41 0.49 0.53 0.47 0.47 0.53
0.08 0.19 0.36 0.39 0.47 0.47 0.47 0.44 0.49 0.65 0.86 0.93 1.06 1.35 1.24 1.41 1.32 1.17 1.20 1.12 0.87 0.78 0.74 0.68 0.66 0.59 0.60 0.58 0.53 0.54 0.55 0.54 0.53 0.54 0.53 0.53 0.54 0.55 0.53 0.51 0.45 0.40 0.38 0.39 0.45 0.48 0.46 0.44 0.49
0.06 0.13 0.21 0.30 0.42 0.46 0.41 0.41 0.41 0.55 0.90 0.92 0.97 1.16 1.41 1.32 1.37 1.61 1.62 1.62 1.35 1.17 0.95 0.81 0.82 0.80 0.72 0.69 0.63 0.64 0.61 0.59 0.61 0.58 0.60 0.62 0.63 0.59 0.58 0.54 0.51 0.50 0.49 0.45 0.44 0.48 0.46 0.48 0.47
0.05 0.14 0.18 0.23 0.31 0.33 0.28 0.33 0.37 0.48 0.63 0.82 0.98 0.96 1.07 1.01 1.22 1.63 1.90 2.09 2.00 1.55 1.31 1.08 0.97 0.94 0.88 0.78 0.71 0.82 0.83 0.81 0.80 0.80 0.80 0.79 0.88 0.83 0.78 0.68 0.72 0.70 0.70 0.71 0.69 0.73 0.68 0.65 0.58
0.05 0.14 0.13 0.14 0.19 0.23 0.20 0.24 0.29 0.51 0.92 1.26 1.31 1.09 1.07 1.16 1.56 1.86 1.93 1.99 2.16 1.74 1.42 1.33 1.20 1.08 1.01 0.84 0.90 1.21 1.12 1.05 1.11 1.17 1.06 1.17 1.24 1.20 0.89 0.92 1.12 1.22 1.28 1.23 1.31 1.44 1.18 1.00 1.05
0.03 0.06 0.07 0.10 0.14 0.16 0.17 0.21 0.26 0.46 0.93 1.24 1.36 1.28 1.37 1.42 1.81 2.15 2.26 2.10 2.17 2.01 1.65 1.53 1.41 1.32 1.34 1.42 1.25 1.35 1.41 1.43 1.42 1.40 1.39 1.43 1.24 1.13 1.11 1.27 1.51 1.66 1.71 1.68 1.96 2.04 1.60 1.67 2.00
0.01 0.02 0.05 0.08 0.11 0.16 0.15 0.18 0.34 0.49 0.78 1.05 1.11 1.54 1.75 1.68 2.01 2.20 2.32 2.45 2.39 2.29 1.97 1.77 1.66 1.66 1.71 1.66 1.58 1.46 1.49 1.48 1.53 1.60 1.57 1.67 1.78 1.71 1.75 1.87 1.87 2.01 2.15 2.42 2.49 2.64 2.28 2.26 2.11
0.01 0.01 0.03 0.06 0.10 0.15 0.16 0.20 0.26 0.53 0.68 0.89 1.08 1.47 1.68 1.62 2.01 2.33 2.65 2.73 2.71 2.46 2.16 2.11 1.87 1.77 1.83 1.93 1.97 1.77 1.86 1.80 1.78 1.89 1.96 2.00 2.20 2.24 2.27 2.24 2.23 2.07 2.24 2.47 2.84 2.80 3.01 2.97 2.64
0.01 0.03 0.04 0.07 0.09 0.14 0.27 0.36 0.36 0.68 0.74 0.88 1.12 1.53 1.63 1.58 1.81 1.84 2.23 2.57 2.67 2.42 2.26 2.21 2.09 2.11 2.19 2.16 2.19 2.25 2.27 2.28 2.19 2.13 2.15 2.21 2.43 2.67 2.68 2.58 2.54 2.32 2.33 2.65 2.91 2.97 3.43 3.28 3.14
0.02 0.07 0.09 0.11 0.14 0.22 0.32 0.53 0.58 0.79 0.86 1.06 1.10 1.31 1.46 1.43 1.54 1.68 1.97 2.29 2.39 2.21 2.31 2.46 2.59 2.77 2.82 2.78 2.72 2.66 2.69 2.63 2.63 2.75 2.73 2.76 2.74 2.81 2.73 2.74 2.63 2.64 2.69 2.84 2.90 3.06 3.45 3.22 3.14
0.04 0.13 0.22 0.23 0.22 0.28 0.47 0.94 0.90 0.98 0.95 1.02 1.03 1.17 1.28 1.32 1.46 1.74 1.92 2.16 2.33 2.24 2.36 2.59 2.69 3.04 3.21 3.23 3.28 3.21 3.13 3.00 3.07 3.08 3.09 3.05 2.98 2.86 2.94 2.77 2.62 2.79 2.87 3.02 3.22 3.21 3.31 3.40 3.40
0.08 0.15 0.24 0.28 0.20 0.22 0.41 0.81 0.80 0.90 1.08 0.98 0.98 1.04 1.09 1.15 1.26 1.46 1.71 1.95 2.27 2.60 2.85 3.17 3.23 3.17 3.26 3.45 3.57 3.36 3.28 3.15 3.05 2.97 3.01 2.89 2.76 2.77 3.10 2.95 2.97 3.06 3.24 3.12 2.90 3.33 3.44 3.45 3.44
0.07 0.14 0.21 0.25 0.24 0.22 0.36 0.58 0.74 0.83 0.94 1.02 1.02 1.10 1.18 1.27 1.49 1.71 2.02 2.21 2.45 2.94 3.29 3.45 3.52 3.71 3.99 4.17 4.06 3.82 3.40 3.10 2.97 2.88 2.78 2.69 2.74 2.75 3.06 2.86 2.90 3.12 3.43 3.49 3.44 3.59 3.48 3.34 3.40
0.06 0.14 0.20 0.22 0.27 0.29 0.38 0.48 0.78 0.99 1.07 1.20 1.34 1.54 1.76 1.94 2.01 2.17 2.47 2.69 2.80 2.95 3.18 3.46 3.88 4.23 4.31 4.12 4.03 3.94 3.62 3.32 2.99 2.68 2.59 2.69 2.61 2.71 3.01 2.78 3.11 3.19 3.35 3.51 3.49 3.63 3.52 3.30 3.40
0.07 0.14 0.21 0.25 0.29 0.29 0.43 0.54 0.79 1.18 1.29 1.25 1.30 1.33 1.41 1.84 2.02 2.22 2.48 2.60 2.57 2.77 3.06 3.47 3.89 4.22 4.12 4.19 4.37 4.30 4.06 3.41 3.04 2.85 2.74 2.66 2.63 2.64 2.73 3.12 3.12 3.22 3.39 3.42 3.32 3.36 3.20 2.96 3.23
0.09 0.13 0.18 0.24 0.35 0.32 0.42 0.77 0.98 1.26 1.39 1.28 1.24 1.25 1.20 1.37 1.65 1.80 1.96 2.13 2.39 2.81 3.22 3.48 3.75 3.91 3.95 4.11 4.24 3.97 3.75 3.25 3.06 3.07 2.89 2.74 2.77 2.77 2.88 3.08 3.16 3.15 3.03 3.16 3.30 3.13 3.03 2.91 2.96
0.12 0.10 0.11 0.18 0.31 0.44 0.53 1.08 1.37 1.56 1.44 1.18 1.21 1.27 1.37 1.46 1.49 1.58 1.70 2.01 2.37 2.75 3.25 3.67 3.69 3.72 3.66 3.80 3.88 3.68 3.33 3.06 2.96 2.96 2.72 2.62 2.56 2.56 2.66 2.73 2.89 2.96 2.89 2.97 2.88 2.88 2.94 2.93 2.75
0.08 0.08 0.09 0.16 0.25 0.41 0.58 0.98 1.42 1.49 1.38 1.14 1.06 1.24 1.45 1.40 1.38 1.48 1.57 1.83 2.08 2.46 2.85 3.24 3.54 3.61 3.48 3.45 3.47 3.56 3.35 3.05 2.84 2.74 2.61 2.54 2.53 2.35 2.30 2.43 2.61 2.64 2.54 2.52 2.68 2.93 2.88 2.75 2.61
0.07 0.09 0.15 0.24 0.41 0.72 0.57 0.71 1.15 1.38 1.27 1.04 1.04 1.17 1.32 1.46 1.46 1.53 1.75 1.91 2.03 2.31 2.63 2.86 3.09 3.14 3.10 3.01 3.02 3.11 3.12 3.05 2.77 2.55 2.52 2.51 2.41 2.24 2.14 2.15 2.27 2.32 2.31 2.28 2.32 2.45 2.51 2.51 2.61
0.08 0.18 0.51 0.83 1.13 0.98 0.62 0.73 1.11 1.08 0.91 0.81 0.87 1.11 1.35 1.58 1.55 1.65 1.82 1.92 1.99 2.12 2.27 2.38 2.49 2.55 2.50 2.49 2.46 2.46 2.54 2.61 2.43 2.31 2.36 2.37 2.26 2.12 2.08 2.03 2.00 1.99 2.01 2.09 2.28 2.28 2.25 2.33 2.45
0.11 0.22 0.58 0.76 0.90 0.87 0.82 1.04 1.11 0.88 0.74 0.74 0.80 0.97 1.24 1.41 1.43 1.54 1.63 1.54 1.54 1.61 1.72 1.84 1.92 1.96 1.93 1.99 2.07 2.09 2.25 2.23 2.15 2.24 2.19 2.21 2.16 2.10 2.01 1.86 1.76 1.72 1.73 1.83 2.07 2.18 2.14 2.23 2.26
0.20 0.26 0.27 0.45 0.55 0.90 1.09 1.22 1.09 0.80 0.91 0.89 0.94 1.01 1.06 1.12 1.15 1.14 1.15 1.19 1.30 1.36 1.39 1.46 1.60 1.65 1.58 1.61 1.75 1.83 1.87 1.92 1.95 2.05 2.02 1.92 1.90 1.77 1.73 1.66 1.60 1.56 1.60 1.69 1.76 1.83 1.81 1.92 1.93
0.21 0.34 0.46 0.68 0.88 1.04 1.13 1.40 1.53 1.35 1.26 1.14 1.21 1.42 1.24 0.98 0.97 0.98 0.94 0.96 1.01 1.04 1.18 1.36 1.49 1.61 1.60 1.53 1.55 1.49 1.56 1.63 1.79 1.86 1.79 1.78 1.79 1.71 1.59 1.53 1.47 1.44 1.43 1.46 1.55 1.56 1.60 1.62 1.61
0.33 0.41 0.51 0.65 0.75 0.98 1.26 1.43 1.22 1.32 1.26 1.22 1.24 1.27 1.09 0.78 0.68 0.73 0.73 0.74 0.79 0.89 1.03 1.19 1.47 1.61 1.51 1.35 1.35 1.41 1.40 1.47 1.58 1.63 1.58 1.61 1.66 1.71 1.65 1.57 1.53 1.43 1.34 1.34 1.39 1.34 1.45 1.46 1.44
0.28 0.41 0.52 0.69 0.77 0.85 1.07 1.25 0.85 0.95 0.91 0.91 0.99 0.88 0.73 0.61 0.52 0.63 0.65 0.60 0.65 0.73 0.83 0.99 1.20 1.35 1.31 1.25 1.27 1.38 1.48 1.46 1.40 1.38 1.39 1.40 1.42 1.41 1.40 1.38 1.41 1.43 1.45 1.45 1.38 1.33 1.33 1.38 1.38

GEFSSGP_prec_meanprecacc_222.txt.gz
Total_Precipitation_Accumulation
0.03 0.10 0.28 0.57 1.00 1.56 1.73 1.18 0.87 0.77 0.66 0.60 0.49 0.41 0.50 0.75 0.98 1.54 1.21 0.74 0.50 0.44 0.45 0.48 0.54 0.44 0.36 0.36 0.40 0.41 0.44 0.43 0.40 0.41 0.45 0.50 0.66 0.74 0.76 0.82 1.01 1.11 1.12 1.07 1.06 0.90 0.78 0.78 0.67
0.04 0.13 0.34 0.75 1.42 2.07 1.76 0.98 0.74 0.71 0.57 0.56 0.54 0.49 0.55 0.66 0.63 0.69 0.79 0.64 0.40 0.35 0.38 0.37 0.43 0.44 0.37 0.34 0.37 0.39 0.42 0.42 0.43 0.49 0.52 0.55 0.64 0.75 0.86 0.97 1.11 1.19 1.10 0.97 0.79 0.68 0.59 0.55 0.48
0.09 0.21 0.38 0.79 1.27 1.80 1.37 0.81 0.59 0.56 0.52 0.59 0.71 0.64 0.71 0.79 0.70 0.72 0.70 0.52 0.39 0.34 0.33 0.43 0.45 0.43 0.39 0.33 0.36 0.38 0.42 0.43 0.46 0.51 0.55 0.57 0.62 0.71 0.83 0.90 1.00 0.96 0.79 0.65 0.58 0.57 0.47 0.41 0.37
0.11 0.28 0.45 0.68 0.84 0.80 0.78 0.77 0.58 0.65 0.71 0.63 0.72 0.87 0.82 0.69 0.64 0.75 0.77 0.59 0.43 0.40 0.36 0.41 0.45 0.42 0.43 0.38 0.34 0.39 0.42 0.47 0.51 0.57 0.60 0.58 0.64 0.66 0.66 0.69 0.78 0.73 0.64 0.53 0.55 0.55 0.45 0.38 0.35
0.11 0.30 0.51 0.66 0.77 0.59 0.57 0.64 0.55 0.63 0.67 0.65 0.69 1.04 1.08 0.83 0.67 0.70 0.71 0.68 0.52 0.60 0.54 0.51 0.53 0.51 0.47 0.39 0.35 0.37 0.42 0.50 0.55 0.60 0.62 0.59 0.62 0.62 0.60 0.61 0.61 0.55 0.51 0.49 0.51 0.52 0.44 0.45 0.47
0.11 0.27 0.53 0.59 0.63 0.49 0.51 0.57 0.55 0.60 0.68 0.74 0.87 1.19 1.27 1.04 0.94 0.92 0.93 0.82 0.63 0.67 0.66 0.62 0.63 0.60 0.58 0.47 0.43 0.45 0.47 0.51 0.56 0.59 0.58 0.59 0.61 0.58 0.56 0.56 0.51 0.41 0.38 0.43 0.50 0.54 0.48 0.47 0.54
0.09 0.20 0.41 0.48 0.53 0.52 0.49 0.46 0.51 0.67 0.89 0.96 1.08 1.37 1.32 1.50 1.39 1.23 1.26 1.18 0.92 0.82 0.76 0.70 0.67 0.60 0.62 0.59 0.54 0.57 0.59 0.59 0.59 0.60 0.57 0.57 0.57 0.58 0.54 0.53 0.46 0.41 0.39 0.41 0.46 0.50 0.47 0.45 0.50
0.06 0.14 0.25 0.38 0.47 0.51 0.43 0.42 0.42 0.56 0.92 0.94 0.99 1.18 1.44 1.39 1.43 1.67 1.68 1.68 1.39 1.20 0.97 0.82 0.83 0.81 0.72 0.69 0.65 0.67 0.66 0.64 0.66 0.62 0.65 0.66 0.66 0.61 0.59 0.56 0.52 0.51 0.50 0.46 0.45 0.50 0.48 0.50 0.50
0.06 0.16 0.21 0.30 0.38 0.36 0.30 0.33 0.37 0.49 0.64 0.83 1.00 0.97 1.09 1.05 1.27 1.69 1.96 2.14 2.04 1.58 1.33 1.09 0.97 0.94 0.88 0.78 0.72 0.85 0.86 0.84 0.84 0.84 0.85 0.82 0.89 0.84 0.79 0.69 0.73 0.72 0.72 0.73 0.72 0.76 0.70 0.68 0.62
0.06 0.15 0.16 0.19 0.24 0.25 0.21 0.24 0.30 0.52 0.93 1.27 1.34 1.15 1.09 1.18 1.60 1.90 1.97 2.02 2.19 1.77 1.46 1.35 1.21 1.09 1.01 0.85 0.91 1.23 1.14 1.08 1.15 1.20 1.08 1.18 1.25 1.21 0.90 0.94 1.14 1.24 1.30 1.25 1.34 1.47 1.21 1.04 1.09
0.04 0.08 0.11 0.15 0.17 0.17 0.19 0.22 0.27 0.47 0.95 1.26 1.40 1.37 1.39 1.44 1.83 2.18 2.29 2.12 2.19 2.04 1.69 1.57 1.44 1.34 1.34 1.43 1.26 1.37 1.45 1.46 1.45 1.44 1.42 1.45 1.26 1.15 1.12 1.29 1.53 1.69 1.74 1.71 1.99 2.06 1.62 1.72 2.06
0.01 0.03 0.08 0.12 0.13 0.17 0.18 0.20 0.34 0.49 0.79 1.06 1.11 1.55 1.77 1.69 2.03 2.23 2.36 2.47 2.41 2.31 2.02 1.81 1.67 1.67 1.72 1.67 1.61 1.50 1.53 1.50 1.55 1.63 1.60 1.71 1.81 1.76 1.79 1.89 1.89 2.03 2.16 2.44 2.51 2.67 2.32 2.30 2.18
0.01 0.02 0.05 0.08 0.12 0.16 0.19 0.23 0.27 0.54 0.68 0.90 1.09 1.48 1.69 1.63 2.03 2.36 2.68 2.76 2.73 2.47 2.18 2.13 1.88 1.78 1.84 1.94 1.99 1.78 1.89 1.82 1.79 1.92 2.00 2.03 2.23 2.26 2.29 2.26 2.26 2.10 2.26 2.48 2.86 2.83 3.05 3.01 2.69
0.01 0.03 0.05 0.07 0.10 0.14 0.28 0.38 0.37 0.69 0.76 0.89 1.12 1.54 1.63 1.59 1.84 1.87 2.25 2.59 2.68 2.43 2.26 2.22 2.09 2.12 2.20 2.17 2.20 2.26 2.28 2.30 2.20 2.15 2.18 2.24 2.44 2.68 2.68 2.59 2.56 2.35 2.35 2.67 2.93 3.00 3.46 3.33 3.18
0.02 0.07 0.10 0.12 0.15 0.22 0.32 0.55 0.61 0.82 0.89 1.08 1.11 1.31 1.46 1.44 1.55 1.69 1.98 2.30 2.41 2.22 2.31 2.46 2.59 2.77 2.83 2.79 2.73 2.66 2.70 2.65 2.65 2.76 2.76 2.78 2.76 2.83 2.74 2.75 2.64 2.65 2.71 2.87 2.94 3.10 3.48 3.27 3.19
0.04 0.13 0.23 0.24 0.23 0.29 0.48 0.98 0.93 1.00 0.98 1.04 1.05 1.17 1.28 1.33 1.47 1.76 1.93 2.16 2.34 2.25 2.36 2.59 2.69 3.04 3.21 3.23 3.29 3.21 3.14 3.02 3.09 3.11 3.14 3.10 3.02 2.89 2.96 2.79 2.63 2.80 2.89 3.05 3.26 3.25 3.35 3.44 3.43
0.08 0.16 0.25 0.30 0.21 0.23 0.43 0.84 0.83 0.92 1.10 1.00 1.00 1.05 1.10 1.16 1.27 1.47 1.73 1.96 2.27 2.61 2.86 3.18 3.23 3.17 3.26 3.45 3.58 3.37 3.29 3.16 3.08 3.02 3.09 3.00 2.86 2.83 3.15 2.99 3.00 3.09 3.27 3.17 2.94 3.38 3.50 3.49 3.46
0.08 0.15 0.22 0.26 0.25 0.22 0.37 0.59 0.76 0.85 0.96 1.03 1.03 1.12 1.20 1.29 1.51 1.73 2.03 2.22 2.46 2.96 3.30 3.46 3.53 3.72 3.99 4.17 4.08 3.83 3.41 3.11 2.99 2.94 2.89 2.86 2.88 2.83 3.13 2.92 2.94 3.16 3.47 3.54 3.48 3.64 3.51 3.37 3.44
0.07 0.16 0.22 0.23 0.28 0.30 0.39 0.48 0.79 1.01 1.11 1.23 1.38 1.58 1.79 1.97 2.03 2.19 2.49 2.70 2.82 2.97 3.20 3.48 3.90 4.25 4.32 4.13 4.05 3.95 3.63 3.34 3.01 2.72 2.66 2.79 2.72 2.79 3.08 2.81 3.14 3.21 3.37 3.55 3.55 3.70 3.56 3.34 3.44
0.08 0.17 0.24 0.27 0.31 0.30 0.44 0.55 0.80 1.20 1.33 1.29 1.34 1.36 1.44 1.88 2.08 2.27 2.51 2.62 2.59 2.79 3.08 3.49 3.91 4.24 4.14 4.21 4.39 4.31 4.09 3.44 3.07 2.88 2.78 2.72 2.67 2.68 2.76 3.15 3.14 3.24 3.41 3.44 3.38 3.44 3.28 3.01 3.28
0.10 0.15 0.21 0.26 0.36 0.33 0.44 0.80 1.01 1.30 1.44 1.31 1.27 1.29 1.25 1.44 1.73 1.86 2.02 2.17 2.42 2.84 3.23 3.49 3.77 3.92 3.97 4.14 4.27 4.00 3.78 3.29 3.12 3.12 2.93 2.79 2.81 2.82 2.92 3.12 3.20 3.19 3.07 3.19 3.34 3.17 3.08 2.96 3.02
0.12 0.11 0.12 0.20 0.33 0.46 0.54 1.11 1.41 1.61 1.51 1.24 1.26 1.32 1.42 1.53 1.60 1.71 1.78 2.07 2.43 2.81 3.32 3.71 3.71 3.74 3.68 3.83 3.92 3.74 3.37 3.09 2.98 2.98 2.75 2.66 2.61 2.61 2.71 2.79 2.95 3.01 2.94 3.00 2.91 2.91 2.97 2.96 2.79
0.09 0.08 0.10 0.17 0.26 0.43 0.60 1.00 1.45 1.52 1.42 1.19 1.10 1.29 1.50 1.49 1.53 1.76 1.72 1.91 2.16 2.53 2.91 3.30 3.59 3.66 3.51 3.47 3.50 3.60 3.39 3.09 2.88 2.78 2.66 2.60 2.59 2.40 2.35 2.49 2.66 2.70 2.62 2.57 2.75 2.99 2.94 2.80 2.67
0.07 0.09 0.15 0.24 0.42 0.74 0.59 0.73 1.16 1.40 1.30 1.08 1.10 1.22 1.37 1.54 1.54 1.70 1.96 1.99 2.09 2.36 2.69 2.93 3.18 3.20 3.13 3.05 3.06 3.15 3.17 3.11 2.84 2.62 2.59 2.58 2.47 2.30 2.19 2.20 2.34 2.43 2.42 2.40 2.46 2.55 2.59 2.58 2.68
0.08 0.18 0.51 0.84 1.13 0.99 0.63 0.75 1.13 1.09 0.94 0.85 0.91 1.16 1.40 1.68 1.69 1.72 1.91 1.99 2.05 2.19 2.34 2.45 2.56 2.61 2.57 2.57 2.52 2.52 2.61 2.68 2.50 2.40 2.44 2.43 2.31 2.17 2.13 2.08 2.06 2.06 2.08 2.16 2.36 2.36 2.32 2.40 2.50
0.11 0.22 0.58 0.77 0.91 0.88 0.82 1.05 1.13 0.90 0.76 0.77 0.84 1.02 1.29 1.46 1.50 1.58 1.67 1.59 1.58 1.67 1.78 1.91 2.00 2.05 2.01 2.05 2.12 2.14 2.32 2.30 2.23 2.32 2.27 2.28 2.21 2.15 2.07 1.92 1.82 1.76 1.78 1.87 2.13 2.26 2.22 2.31 2.34
0.20 0.26 0.27 0.45 0.55 0.90 1.10 1.24 1.14 0.83 0.94 0.93 1.00 1.06 1.11 1.16 1.19 1.17 1.19 1.23 1.34 1.39 1.42 1.51 1.65 1.70 1.64 1.67 1.81 1.89 1.93 1.98 2.01 2.10 2.07 1.97 1.95 1.82 1.80 1.74 1.64 1.59 1.64 1.74 1.83 1.91 1.89 2.01 2.02
0.22 0.34 0.47 0.68 0.88 1.05 1.14 1.43 1.62 1.44 1.35 1.22 1.32 1.54 1.30 1.04 1.04 1.04 1.00 1.02 1.04 1.06 1.20 1.39 1.52 1.65 1.65 1.60 1.60 1.54 1.62 1.68 1.83 1.90 1.84 1.83 1.86 1.79 1.67 1.59 1.51 1.48 1.47 1.52 1.63 1.65 1.69 1.71 1.69
0.33 0.41 0.51 0.65 0.75 0.99 1.28 1.46 1.28 1.45 1.41 1.34 1.32 1.36 1.25 0.92 0.79 0.85 0.82 0.82 0.84 0.92 1.06 1.21 1.51 1.66 1.59 1.43 1.42 1.46 1.45 1.52 1.64 1.70 1.65 1.69 1.73 1.80 1.73 1.63 1.57 1.46 1.38 1.40 1.47 1.41 1.53 1.56 1.54
0.28 0.41 0.52 0.69 0.77 0.86 1.09 1.30 0.92 1.06 1.03 0.98 1.04 0.93 0.84 0.77 0.62 0.72 0.73 0.68 0.71 0.77 0.86 1.03 1.25 1.41 1.39 1.34 1.33 1.44 1.53 1.51 1.45 1.44 1.45 1.47 1.49 1.49 1.47 1.45 1.46 1.47 1.51 1.52 1.46 1.40 1.39 1.45 1.44

GEFSSGP_prec_meanprecacc_228.txt.gz
Total_Precipitation_Accumulation
0.03 0.11 0.28 0.57 1.01 1.57 1.76 1.22 0.91 0.79 0.69 0.62 0.51 0.44 0.52 0.76 0.99 1.58 1.26 0.80 0.59 0.53 0.54 0.57 0.62 0.50 0.41 0.40 0.44 0.45 0.48 0.45 0.42 0.42 0.48 0.55 0.72 0.81 0.81 0.87 1.07 1.19 1.21 1.16 1.16 1.00 0.87 0.86 0.77
0.04 0.13 0.34 0.76 1.42 2.08 1.78 1.01 0.78 0.73 0.60 0.58 0.55 0.52 0.59 0.69 0.65 0.74 0.86 0.71 0.50 0.43 0.44 0.42 0.49 0.47 0.39 0.38 0.42 0.43 0.45 0.45 0.45 0.50 0.54 0.58 0.70 0.83 0.92 1.02 1.17 1.27 1.19 1.08 0.91 0.79 0.69 0.65 0.58
0.10 0.21 0.38 0.79 1.27 1.82 1.42 0.85 0.62 0.59 0.54 0.60 0.74 0.69 0.78 0.84 0.73 0.77 0.76 0.59 0.48 0.41 0.39 0.48 0.51 0.47 0.41 0.36 0.42 0.43 0.46 0.47 0.49 0.53 0.57 0.59 0.68 0.82 0.94 0.99 1.09 1.07 0.93 0.81 0.74 0.68 0.57 0.51 0.45
0.11 0.28 0.45 0.69 0.85 0.81 0.82 0.82 0.60 0.68 0.73 0.66 0.75 0.94 0.90 0.76 0.70 0.80 0.83 0.66 0.50 0.47 0.42 0.47 0.50 0.46 0.46 0.40 0.37 0.42 0.45 0.50 0.54 0.60 0.62 0.61 0.72 0.82 0.85 0.88 0.94 0.90 0.82 0.71 0.69 0.63 0.53 0.44 0.42
0.11 0.30 0.52 0.66 0.78 0.61 0.60 0.68 0.58 0.65 0.69 0.68 0.73 1.10 1.20 0.95 0.73 0.75 0.77 0.74 0.58 0.67 0.60 0.56 0.57 0.54 0.49 0.40 0.37 0.40 0.45 0.53 0.58 0.64 0.66 0.63 0.66 0.70 0.76 0.82 0.79 0.71 0.64 0.58 0.58 0.57 0.49 0.50 0.55
0.11 0.27 0.53 0.60 0.65 0.51 0.54 0.59 0.57 0.61 0.70 0.77 0.90 1.25 1.38 1.17 1.06 1.02 1.01 0.89 0.70 0.74 0.71 0.66 0.67 0.62 0.59 0.48 0.44 0.48 0.51 0.57 0.61 0.63 0.63 0.63 0.65 0.63 0.66 0.70 0.61 0.48 0.43 0.47 0.54 0.58 0.52 0.52 0.60
0.09 0.21 0.42 0.49 0.56 0.56 0.53 0.49 0.53 0.69 0.91 0.98 1.09 1.41 1.41 1.64 1.55 1.37 1.37 1.28 0.99 0.87 0.79 0.73 0.70 0.62 0.63 0.61 0.56 0.60 0.64 0.66 0.65 0.64 0.62 0.61 0.61 0.63 0.61 0.60 0.51 0.45 0.42 0.43 0.50 0.54 0.51 0.51 0.56
0.06 0.14 0.25 0.38 0.49 0.55 0.46 0.44 0.43 0.59 0.95 0.95 0.99 1.21 1.52 1.50 1.55 1.80 1.79 1.77 1.46 1.25 1.01 0.85 0.85 0.83 0.73 0.71 0.69 0.74 0.75 0.73 0.74 0.68 0.68 0.69 0.70 0.67 0.64 0.59 0.55 0.53 0.52 0.48 0.49 0.54 0.52 0.55 0.57
0.06 0.16 0.21 0.31 0.39 0.38 0.31 0.35 0.38 0.51 0.67 0.84 1.01 1.00 1.14 1.12 1.35 1.78 2.03 2.21 2.10 1.61 1.35 1.11 0.99 0.96 0.89 0.82 0.85 1.01 0.99 0.93 0.89 0.88 0.89 0.85 0.92 0.86 0.81 0.70 0.75 0.74 0.74 0.76 0.76 0.80 0.76 0.74 0.70
0.06 0.16 0.16 0.19 0.25 0.26 0.22 0.25 0.31 0.53 0.95 1.29 1.36 1.18 1.14 1.25 1.65 1.95 2.00 2.05 2.22 1.79 1.48 1.37 1.23 1.10 1.01 0.86 0.95 1.28 1.19 1.11 1.16 1.22 1.10 1.20 1.26 1.22 0.91 0.96 1.16 1.26 1.32 1.29 1.38 1.51 1.25 1.07 1.14
0.04 0.08 0.11 0.15 0.17 0.18 0.20 0.23 0.28 0.48 0.96 1.27 1.41 1.39 1.43 1.48 1.87 2.22 2.33 2.15 2.21 2.06 1.71 1.59 1.45 1.35 1.35 1.43 1.26 1.37 1.45 1.47 1.46 1.44 1.43 1.46 1.27 1.16 1.13 1.29 1.54 1.70 1.75 1.72 2.01 2.09 1.64 1.74 2.09
0.02 0.03 0.08 0.12 0.14 0.18 0.19 0.22 0.36 0.50 0.79 1.06 1.12 1.56 1.78 1.72 2.06 2.27 2.39 2.50 2.42 2.32 2.03 1.82 1.68 1.68 1.73 1.68 1.61 1.50 1.53 1.51 1.55 1.63 1.60 1.71 1.81 1.77 1.80 1.89 1.89 2.03 2.17 2.44 2.52 2.69 2.34 2.33 2.23
0.01 0.02 0.05 0.08 0.13 0.16 0.20 0.24 0.28 0.54 0.69 0.90 1.10 1.48 1.70 1.65 2.06 2.42 2.72 2.79 2.76 2.49 2.19 2.14 1.89 1.80 1.84 1.95 1.99 1.78 1.89 1.82 1.79 1.93 2.01 2.03 2.24 2.27 2.30 2.27 2.26 2.10 2.26 2.49 2.88 2.86 3.09 3.05 2.73
0.01 0.03 0.05 0.08 0.10 0.15 0.29 0.39 0.38 0.70 0.76 0.89 1.13 1.55 1.65 1.62 1.88 1.92 2.29 2.61 2.70 2.45 2.27 2.24 2.10 2.13 2.21 2.18 2.21 2.27 2.29 2.31 2.21 2.16 2.19 2.25 2.46 2.69 2.70 2.61 2.58 2.37 2.37 2.68 2.95 3.03 3.49 3.37 3.23
0.02 0.07 0.11 0.13 0.16 0.23 0.33 0.56 0.62 0.83 0.89 1.08 1.12 1.32 1.48 1.47 1.59 1.74 2.02 2.32 2.42 2.23 2.33 2.48 2.60 2.79 2.84 2.80 2.74 2.68 2.71 2.66 2.67 2.78 2.79 2.82 2.79 2.85 2.77 2.78 2.66 2.68 2.73 2.89 2.96 3.13 3.52 3.32 3.25
0.05 0.14 0.23 0.25 0.24 0.29 0.49 0.99 0.94 1.01 0.99 1.05 1.05 1.18 1.29 1.34 1.49 1.80 1.97 2.19 2.35 2.27 2.37 2.61 2.70 3.06 3.22 3.25 3.31 3.23 3.16 3.05 3.12 3.14 3.17 3.15 3.08 2.94 3.00 2.82 2.67 2.84 2.92 3.08 3.30 3.31 3.40 3.50 3.49
0.08 0.16 0.26 0.31 0.22 0.24 0.45 0.85 0.83 0.92 1.11 1.01 1.01 1.06 1.11 1.17 1.29 1.50 1.77 1.99 2.29 2.62 2.87 3.19 3.25 3.18 3.27 3.47 3.61 3.40 3.31 3.18 3.11 3.04 3.13 3.05 2.92 2.87 3.18 3.02 3.03 3.12 3.31 3.20 2.98 3.44 3.58 3.55 3.52
0.08 0.15 0.23 0.27 0.26 0.23 0.37 0.60 0.77 0.86 0.97 1.04 1.05 1.13 1.21 1.30 1.52 1.75 2.06 2.25 2.48 2.98 3.32 3.48 3.55 3.74 4.01 4.20 4.11 3.86 3.45 3.13 3.02 2.97 2.94 2.92 2.92 2.86 3.16 2.96 2.97 3.18 3.49 3.57 3.52 3.71 3.60 3.45 3.52
0.07 0.16 0.22 0.23 0.29 0.31 0.40 0.49 0.80 1.02 1.11 1.24 1.40 1.59 1.80 1.99 2.05 2.21 2.51 2.73 2.87 3.02 3.24 3.51 3.92 4.27 4.36 4.18 4.10 3.99 3.67 3.36 3.03 2.76 2.72 2.85 2.77 2.83 3.13 2.86 3.18 3.24 3.39 3.57 3.59 3.76 3.66 3.44 3.53
0.08 0.17 0.24 0.27 0.31 0.31 0.45 0.56 0.81 1.21 1.34 1.30 1.35 1.38 1.46 1.91 2.11 2.30 2.54 2.68 2.68 2.86 3.15 3.54 3.96 4.28 4.20 4.29 4.47 4.38 4.15 3.48 3.10 2.92 2.84 2.77 2.72 2.72 2.81 3.22 3.20 3.26 3.43 3.46 3.41 3.49 3.36 3.11 3.37
0.10 0.15 0.21 0.27 0.37 0.34 0.45 0.82 1.02 1.32 1.46 1.33 1.29 1.31 1.27 1.47 1.77 1.91 2.07 2.26 2.50 2.91 3.32 3.59 3.88 4.03 4.06 4.23 4.35 4.05 3.83 3.33 3.16 3.15 2.97 2.84 2.85 2.86 2.96 3.17 3.24 3.22 3.09 3.22 3.37 3.22 3.16 3.05 3.11
0.12 0.11 0.13 0.20 0.34 0.48 0.56 1.12 1.42 1.62 1.52 1.26 1.28 1.34 1.44 1.56 1.64 1.75 1.81 2.11 2.47 2.86 3.42 3.82 3.84 3.91 3.78 3.89 3.97 3.78 3.41 3.12 3.01 3.02 2.79 2.71 2.65 2.65 2.75 2.83 2.98 3.06 2.98 3.04 2.97 2.98 3.05 3.03 2.87
0.09 0.08 0.10 0.17 0.27 0.44 0.61 1.00 1.46 1.53 1.43 1.20 1.12 1.31 1.52 1.51 1.56 1.80 1.76 1.94 2.19 2.59 2.99 3.39 3.72 3.79 3.60 3.52 3.54 3.64 3.43 3.13 2.92 2.82 2.71 2.66 2.64 2.46 2.41 2.54 2.70 2.75 2.67 2.62 2.82 3.07 3.02 2.85 2.72
0.07 0.09 0.15 0.26 0.43 0.74 0.60 0.73 1.16 1.40 1.31 1.09 1.12 1.24 1.39 1.56 1.57 1.73 1.99 2.02 2.12 2.40 2.75 3.02 3.26 3.25 3.17 3.10 3.11 3.19 3.22 3.16 2.89 2.67 2.67 2.65 2.53 2.36 2.28 2.28 2.43 2.51 2.49 2.46 2.54 2.64 2.69 2.66 2.74
0.09 0.18 0.51 0.84 1.14 0.99 0.63 0.75 1.13 1.10 0.94 0.85 0.92 1.17 1.42 1.71 1.71 1.75 1.93 2.00 2.07 2.21 2.37 2.51 2.61 2.65 2.61 2.63 2.58 2.57 2.66 2.72 2.55 2.46 2.49 2.47 2.36 2.25 2.23 2.18 2.21 2.16 2.14 2.22 2.42 2.44 2.40 2.46 2.55
0.11 0.22 0.58 0.77 0.91 0.88 0.82 1.05 1.14 0.90 0.77 0.77 0.85 1.03 1.30 1.47 1.51 1.60 1.69 1.60 1.61 1.71 1.83 1.98 2.09 2.10 2.04 2.10 2.16 2.19 2.37 2.35 2.30 2.39 2.32 2.32 2.25 2.21 2.13 1.99 1.91 1.84 1.85 1.91 2.18 2.33 2.29 2.36 2.39
0.20 0.26 0.27 0.45 0.55 0.91 1.10 1.24 1.15 0.84 0.95 0.93 1.01 1.07 1.12 1.17 1.20 1.19 1.22 1.27 1.39 1.44 1.48 1.57 1.74 1.76 1.67 1.71 1.86 1.93 1.99 2.06 2.11 2.17 2.11 2.00 1.99 1.87 1.86 1.81 1.72 1.67 1.70 1.78 1.87 1.95 1.94 2.06 2.08
0.22 0.34 0.47 0.68 0.88 1.05 1.14 1.43 1.62 1.44 1.36 1.23 1.33 1.55 1.30 1.05 1.06 1.08 1.05 1.09 1.12 1.14 1.25 1.42 1.56 1.70 1.70 1.64 1.66 1.60 1.68 1.76 1.91 1.95 1.88 1.88 1.92 1.86 1.76 1.68 1.60 1.56 1.52 1.56 1.68 1.68 1.72 1.74 1.73
0.33 0.41 0.51 0.65 0.75 0.99 1.28 1.46 1.28 1.45 1.42 1.35 1.32 1.37 1.25 0.93 0.81 0.89 0.87 0.91 0.96 1.01 1.10 1.25 1.54 1.70 1.64 1.48 1.48 1.52 1.50 1.58 1.71 1.75 1.70 1.75 1.81 1.90 1.86 1.74 1.66 1.52 1.43 1.46 1.51 1.43 1.55 1.59 1.56
0.28 0.42 0.52 0.69 0.77 0.86 1.09 1.30 0.92 1.06 1.04 0.99 1.04 0.94 0.85 0.78 0.63 0.75 0.80 0.77 0.80 0.85 0.93 1.08 1.29 1.44 1.44 1.40 1.38 1.48 1.57 1.57 1.52 1.50 1.50 1.52 1.55 1.58 1.58 1.55 1.53 1.52 1.56 1.59 1.50 1.43 1.43 1.47 1.46

GEFSSGP_prec_meanprecacc_234.txt.gz
Total_Precipitation_Accumulation
0.03 0.11 0.28 0.57 1.01 1.58 1.78 1.23 0.92 0.81 0.72 0.64 0.51 0.45 0.53 0.77 1.01 1.61 1.31 0.88 0.68 0.62 0.64 0.68 0.69 0.57 0.48 0.48 0.51 0.52 0.54 0.49 0.45 0.46 0.52 0.61 0.84 0.96 0.95 0.97 1.16 1.34 1.40 1.29 1.29 1.11 0.94 0.93 0.82
0.04 0.13 0.34 0.76 1.43 2.10 1.80 1.03 0.79 0.75 0.62 0.59 0.56 0.52 0.60 0.71 0.68 0.79 0.93 0.80 0.58 0.50 0.53 0.51 0.55 0.54 0.45 0.44 0.48 0.49 0.49 0.47 0.48 0.53 0.58 0.63 0.77 0.92 1.02 1.12 1.27 1.40 1.32 1.21 1.02 0.87 0.76 0.71 0.64
0.10 0.21 0.38 0.79 1.28 1.84 1.44 0.87 0.64 0.61 0.56 0.62 0.77 0.70 0.80 0.87 0.78 0.86 0.84 0.68 0.55 0.48 0.46 0.56 0.56 0.52 0.46 0.41 0.47 0.48 0.49 0.50 0.51 0.57 0.61 0.66 0.77 0.93 1.07 1.11 1.20 1.20 1.07 0.94 0.85 0.79 0.67 0.60 0.55
0.11 0.28 0.45 0.69 0.85 0.82 0.84 0.83 0.62 0.70 0.74 0.67 0.77 0.97 0.93 0.80 0.74 0.85 0.88 0.73 0.56 0.52 0.48 0.53 0.55 0.51 0.50 0.43 0.42 0.47 0.49 0.55 0.58 0.64 0.70 0.74 0.84 0.94 0.98 1.02 1.09 1.06 0.96 0.87 0.84 0.75 0.63 0.55 0.52
0.11 0.30 0.52 0.66 0.78 0.61 0.61 0.69 0.59 0.67 0.71 0.69 0.74 1.14 1.26 0.99 0.77 0.78 0.81 0.79 0.62 0.71 0.66 0.61 0.62 0.58 0.53 0.43 0.40 0.45 0.49 0.59 0.62 0.68 0.71 0.71 0.75 0.80 0.87 0.94 0.95 0.91 0.84 0.75 0.73 0.69 0.59 0.60 0.64
0.11 0.27 0.53 0.60 0.65 0.52 0.55 0.61 0.58 0.63 0.71 0.78 0.93 1.31 1.49 1.25 1.11 1.06 1.04 0.92 0.74 0.78 0.77 0.73 0.74 0.68 0.62 0.51 0.47 0.52 0.56 0.63 0.67 0.68 0.67 0.68 0.70 0.71 0.75 0.82 0.83 0.72 0.63 0.62 0.69 0.70 0.63 0.62 0.69
0.09 0.21 0.42 0.49 0.56 0.56 0.53 0.50 0.56 0.71 0.94 1.01 1.13 1.48 1.55 1.75 1.63 1.41 1.39 1.30 1.04 0.92 0.86 0.80 0.76 0.67 0.67 0.64 0.60 0.63 0.69 0.73 0.71 0.70 0.67 0.65 0.67 0.69 0.70 0.76 0.72 0.62 0.56 0.54 0.61 0.64 0.61 0.59 0.64
0.06 0.14 0.25 0.38 0.49 0.56 0.46 0.44 0.44 0.60 0.97 0.97 1.02 1.28 1.66 1.62 1.65 1.86 1.83 1.82 1.53 1.31 1.07 0.90 0.90 0.87 0.76 0.74 0.73 0.81 0.85 0.83 0.82 0.75 0.74 0.74 0.77 0.73 0.72 0.70 0.67 0.65 0.61 0.57 0.57 0.62 0.59 0.62 0.65
0.06 0.16 0.21 0.31 0.40 0.39 0.31 0.35 0.39 0.52 0.69 0.87 1.05 1.08 1.25 1.21 1.43 1.85 2.08 2.27 2.16 1.67 1.40 1.15 1.02 0.99 0.93 0.89 0.94 1.16 1.15 1.05 0.98 0.96 0.94 0.90 0.98 0.91 0.87 0.77 0.84 0.83 0.82 0.84 0.84 0.88 0.83 0.81 0.77
0.06 0.16 0.16 0.19 0.25 0.26 0.22 0.25 0.31 0.54 0.96 1.32 1.44 1.28 1.24 1.32 1.70 2.01 2.06 2.09 2.27 1.83 1.51 1.41 1.26 1.11 1.04 0.89 1.01 1.38 1.28 1.17 1.21 1.26 1.15 1.24 1.30 1.26 0.94 1.02 1.23 1.32 1.38 1.37 1.47 1.58 1.31 1.11 1.20
0.04 0.08 0.11 0.15 0.17 0.18 0.20 0.24 0.28 0.49 0.98 1.31 1.47 1.47 1.50 1.53 1.91 2.27 2.38 2.18 2.24 2.09 1.75 1.62 1.48 1.37 1.36 1.45 1.30 1.40 1.49 1.50 1.48 1.46 1.46 1.50 1.29 1.18 1.16 1.34 1.59 1.76 1.80 1.77 2.07 2.13 1.67 1.77 2.14
0.02 0.03 0.08 0.12 0.15 0.18 0.19 0.22 0.37 0.50 0.80 1.08 1.14 1.59 1.82 1.75 2.09 2.29 2.41 2.52 2.43 2.35 2.05 1.83 1.70 1.69 1.74 1.69 1.62 1.51 1.54 1.52 1.55 1.64 1.63 1.76 1.86 1.81 1.83 1.93 1.92 2.07 2.22 2.50 2.57 2.74 2.37 2.36 2.26
0.01 0.02 0.05 0.08 0.13 0.16 0.20 0.24 0.28 0.54 0.69 0.91 1.10 1.49 1.72 1.67 2.07 2.43 2.72 2.81 2.77 2.50 2.21 2.16 1.90 1.80 1.85 1.96 2.01 1.79 1.90 1.83 1.81 1.95 2.05 2.08 2.28 2.31 2.34 2.31 2.30 2.14 2.30 2.54 2.94 2.92 3.14 3.11 2.78
0.01 0.03 0.05 0.08 0.10 0.15 0.29 0.39 0.39 0.71 0.76 0.89 1.13 1.55 1.66 1.63 1.89 1.93 2.32 2.63 2.72 2.46 2.29 2.25 2.12 2.14 2.21 2.19 2.23 2.28 2.30 2.33 2.23 2.20 2.23 2.29 2.50 2.75 2.76 2.66 2.64 2.43 2.41 2.73 3.03 3.09 3.57 3.46 3.32
0.02 0.07 0.11 0.13 0.16 0.23 0.33 0.57 0.63 0.83 0.90 1.09 1.12 1.32 1.48 1.48 1.60 1.76 2.04 2.33 2.42 2.25 2.34 2.49 2.62 2.80 2.86 2.82 2.76 2.70 2.73 2.68 2.70 2.83 2.83 2.88 2.85 2.94 2.85 2.84 2.72 2.75 2.79 2.97 3.05 3.21 3.61 3.41 3.34
0.05 0.14 0.24 0.26 0.24 0.29 0.49 1.00 0.94 1.01 0.99 1.06 1.06 1.18 1.30 1.36 1.50 1.83 1.99 2.21 2.36 2.29 2.40 2.62 2.73 3.10 3.25 3.28 3.35 3.27 3.19 3.10 3.20 3.22 3.25 3.23 3.16 3.02 3.07 2.89 2.73 2.92 2.99 3.18 3.42 3.43 3.53 3.64 3.60
0.08 0.16 0.26 0.32 0.23 0.24 0.45 0.85 0.83 0.92 1.12 1.02 1.02 1.07 1.12 1.18 1.30 1.52 1.79 2.02 2.32 2.65 2.91 3.23 3.30 3.25 3.33 3.52 3.67 3.45 3.37 3.27 3.19 3.12 3.22 3.14 2.99 2.93 3.23 3.09 3.11 3.18 3.38 3.30 3.05 3.54 3.71 3.67 3.61
0.08 0.15 0.23 0.28 0.26 0.24 0.38 0.60 0.77 0.87 0.97 1.05 1.06 1.15 1.22 1.31 1.53 1.76 2.08 2.27 2.51 3.02 3.37 3.54 3.63 3.82 4.09 4.27 4.17 3.92 3.50 3.21 3.11 3.04 3.02 3.00 2.99 2.91 3.21 3.01 3.05 3.24 3.58 3.66 3.61 3.82 3.72 3.58 3.63
0.07 0.16 0.22 0.23 0.29 0.32 0.40 0.49 0.80 1.02 1.12 1.24 1.40 1.61 1.82 2.00 2.06 2.22 2.53 2.75 2.90 3.05 3.28 3.57 3.99 4.34 4.42 4.23 4.15 4.06 3.75 3.44 3.12 2.84 2.78 2.91 2.82 2.88 3.19 2.91 3.26 3.33 3.48 3.67 3.66 3.84 3.75 3.54 3.63
0.08 0.17 0.25 0.28 0.32 0.31 0.46 0.57 0.81 1.21 1.35 1.31 1.36 1.38 1.47 1.92 2.13 2.32 2.56 2.70 2.70 2.89 3.18 3.58 4.02 4.34 4.25 4.33 4.52 4.44 4.21 3.53 3.16 2.99 2.90 2.83 2.77 2.77 2.85 3.29 3.28 3.36 3.53 3.56 3.50 3.58 3.45 3.20 3.48
0.10 0.15 0.21 0.27 0.37 0.35 0.46 0.83 1.03 1.32 1.46 1.33 1.29 1.31 1.28 1.48 1.79 1.92 2.08 2.28 2.52 2.92 3.33 3.60 3.91 4.07 4.10 4.27 4.39 4.10 3.88 3.38 3.22 3.21 3.03 2.91 2.90 2.91 3.02 3.24 3.32 3.32 3.18 3.32 3.48 3.32 3.26 3.15 3.21
0.12 0.11 0.13 0.20 0.35 0.49 0.57 1.13 1.43 1.62 1.52 1.26 1.28 1.34 1.44 1.56 1.64 1.76 1.82 2.11 2.47 2.87 3.44 3.84 3.86 3.92 3.81 3.92 4.01 3.82 3.47 3.20 3.09 3.07 2.85 2.76 2.70 2.72 2.82 2.90 3.07 3.17 3.07 3.15 3.07 3.06 3.15 3.15 2.99
0.09 0.08 0.11 0.18 0.28 0.45 0.62 1.01 1.46 1.54 1.44 1.20 1.12 1.31 1.53 1.52 1.57 1.81 1.76 1.94 2.19 2.60 3.00 3.40 3.74 3.80 3.61 3.54 3.56 3.69 3.51 3.22 3.00 2.87 2.77 2.71 2.69 2.51 2.48 2.62 2.80 2.87 2.79 2.74 2.95 3.20 3.13 2.96 2.85
0.07 0.09 0.16 0.26 0.44 0.76 0.60 0.74 1.17 1.41 1.31 1.09 1.12 1.24 1.39 1.57 1.58 1.73 1.99 2.03 2.12 2.41 2.75 3.03 3.27 3.26 3.18 3.12 3.15 3.24 3.28 3.23 2.97 2.75 2.75 2.73 2.59 2.42 2.33 2.34 2.52 2.62 2.59 2.56 2.66 2.77 2.81 2.78 2.85
0.09 0.18 0.52 0.85 1.14 1.00 0.63 0.75 1.13 1.10 0.94 0.85 0.93 1.17 1.43 1.71 1.72 1.75 1.93 2.01 2.08 2.21 2.38 2.51 2.62 2.66 2.62 2.65 2.61 2.59 2.70 2.76 2.60 2.53 2.58 2.56 2.44 2.32 2.30 2.24 2.29 2.25 2.22 2.29 2.51 2.54 2.50 2.56 2.65
0.11 0.22 0.58 0.77 0.92 0.88 0.83 1.06 1.14 0.90 0.77 0.77 0.85 1.03 1.31 1.47 1.51 1.60 1.69 1.60 1.61 1.71 1.84 1.99 2.10 2.11 2.05 2.12 2.19 2.21 2.39 2.38 2.34 2.45 2.38 2.38 2.31 2.28 2.20 2.05 1.97 1.92 1.91 1.97 2.25 2.39 2.35 2.42 2.45
0.20 0.26 0.28 0.45 0.55 0.91 1.11 1.24 1.15 0.84 0.95 0.93 1.01 1.07 1.13 1.17 1.20 1.19 1.22 1.27 1.40 1.46 1.50 1.58 1.76 1.77 1.69 1.74 1.88 1.96 2.00 2.10 2.17 2.22 2.14 2.03 2.04 1.92 1.91 1.86 1.76 1.71 1.74 1.84 1.93 2.00 1.99 2.12 2.14
0.22 0.34 0.47 0.68 0.88 1.05 1.14 1.43 1.62 1.44 1.36 1.23 1.33 1.55 1.31 1.05 1.06 1.08 1.05 1.10 1.14 1.17 1.27 1.43 1.58 1.71 1.72 1.67 1.68 1.63 1.70 1.79 1.96 2.00 1.91 1.92 1.97 1.92 1.82 1.74 1.65 1.62 1.58 1.61 1.73 1.73 1.77 1.79 1.79
0.33 0.41 0.51 0.65 0.75 0.99 1.28 1.46 1.28 1.45 1.42 1.35 1.32 1.37 1.26 0.93 0.81 0.89 0.88 0.92 0.97 1.02 1.11 1.26 1.55 1.72 1.66 1.50 1.50 1.55 1.51 1.60 1.74 1.78 1.74 1.81 1.88 1.98 1.93 1.82 1.74 1.60 1.50 1.51 1.56 1.47 1.60 1.64 1.62
0.28 0.42 0.52 0.69 0.77 0.86 1.09 1.30 0.92 1.06 1.04 0.99 1.04 0.94 0.85 0.78 0.64 0.75 0.80 0.77 0.81 0.86 0.94 1.09 1.30 1.46 1.47 1.42 1.42 1.51 1.60 1.60 1.56 1.55 1.56 1.59 1.61 1.64 1.65 1.61 1.59 1.58 1.61 1.64 1.55 1.48 1.49 1.53 1.51

GEFSSGP_prec_meanprecacc_240.txt.gz
Total_Precipitation_Accumulation
0.03 0.11 0.29 0.58 1.06 1.65 1.82 1.25 0.93 0.82 0.73 0.65 0.52 0.45 0.54 0.80 1.08 1.73 1.45 1.01 0.75 0.68 0.69 0.72 0.75 0.61 0.53 0.53 0.56 0.58 0.59 0.55 0.50 0.51 0.63 0.75 0.98 1.07 1.02 1.04 1.26 1.51 1.57 1.50 1.47 1.22 1.02 1.00 0.90
0.04 0.13 0.35 0.77 1.49 2.18 1.86 1.05 0.81 0.77 0.63 0.60 0.57 0.54 0.63 0.74 0.74 0.90 1.06 0.91 0.63 0.54 0.58 0.55 0.60 0.58 0.50 0.49 0.52 0.53 0.54 0.53 0.54 0.60 0.68 0.74 0.88 1.03 1.11 1.21 1.42 1.58 1.48 1.40 1.17 0.96 0.85 0.78 0.69
0.10 0.22 0.39 0.81 1.31 1.89 1.48 0.89 0.66 0.62 0.56 0.64 0.79 0.71 0.82 0.92 0.87 0.99 0.95 0.76 0.61 0.52 0.49 0.60 0.61 0.56 0.52 0.46 0.51 0.53 0.55 0.55 0.57 0.64 0.70 0.74 0.84 1.03 1.17 1.19 1.34 1.34 1.21 1.09 0.96 0.88 0.74 0.65 0.60
0.12 0.29 0.46 0.70 0.86 0.83 0.86 0.85 0.63 0.72 0.75 0.68 0.78 0.98 0.98 0.88 0.86 0.95 0.97 0.81 0.60 0.55 0.51 0.57 0.59 0.55 0.55 0.47 0.47 0.51 0.54 0.60 0.61 0.71 0.78 0.81 0.91 1.03 1.08 1.13 1.23 1.18 1.07 0.97 0.91 0.82 0.67 0.59 0.57
0.12 0.31 0.53 0.67 0.78 0.62 0.62 0.71 0.61 0.68 0.71 0.70 0.75 1.16 1.29 1.07 0.85 0.85 0.88 0.85 0.66 0.76 0.71 0.65 0.66 0.62 0.57 0.47 0.44 0.48 0.53 0.63 0.66 0.71 0.75 0.76 0.82 0.90 0.96 1.06 1.08 1.02 0.93 0.84 0.81 0.75 0.63 0.64 0.68
0.11 0.28 0.53 0.61 0.65 0.52 0.56 0.62 0.60 0.63 0.72 0.79 0.93 1.32 1.53 1.33 1.17 1.12 1.10 0.97 0.78 0.82 0.82 0.77 0.78 0.71 0.66 0.55 0.51 0.55 0.60 0.67 0.70 0.72 0.71 0.71 0.74 0.76 0.84 0.95 0.96 0.82 0.71 0.70 0.77 0.77 0.69 0.67 0.72
0.09 0.21 0.42 0.49 0.57 0.57 0.54 0.51 0.57 0.72 0.94 1.02 1.14 1.50 1.59 1.82 1.68 1.46 1.45 1.35 1.09 0.98 0.92 0.85 0.81 0.70 0.71 0.71 0.63 0.66 0.73 0.76 0.74 0.73 0.70 0.68 0.69 0.73 0.77 0.88 0.88 0.74 0.64 0.63 0.69 0.72 0.67 0.63 0.67
0.06 0.14 0.25 0.39 0.50 0.57 0.48 0.45 0.45 0.61 0.98 0.98 1.04 1.31 1.70 1.66 1.68 1.89 1.87 1.87 1.59 1.38 1.13 0.95 0.95 0.92 0.81 0.79 0.75 0.84 0.88 0.87 0.85 0.78 0.77 0.76 0.79 0.78 0.80 0.82 0.81 0.78 0.71 0.65 0.64 0.67 0.63 0.65 0.68
0.06 0.16 0.21 0.31 0.41 0.40 0.32 0.36 0.39 0.52 0.70 0.88 1.07 1.10 1.29 1.24 1.45 1.87 2.12 2.33 2.23 1.73 1.46 1.21 1.07 1.05 0.99 0.93 0.98 1.22 1.20 1.10 1.03 1.00 0.98 0.97 1.07 1.01 1.01 0.90 0.95 0.94 0.91 0.91 0.89 0.91 0.86 0.83 0.79
0.07 0.16 0.16 0.19 0.25 0.26 0.23 0.26 0.32 0.55 0.97 1.35 1.48 1.33 1.29 1.36 1.73 2.04 2.09 2.14 2.32 1.89 1.55 1.46 1.32 1.18 1.11 0.97 1.10 1.47 1.35 1.24 1.28 1.32 1.22 1.32 1.40 1.38 1.05 1.12 1.30 1.40 1.46 1.43 1.50 1.60 1.33 1.14 1.26
0.04 0.08 0.11 0.15 0.17 0.18 0.21 0.25 0.30 0.51 1.02 1.37 1.54 1.52 1.55 1.57 1.94 2.30 2.41 2.21 2.28 2.14 1.79 1.67 1.52 1.40 1.40 1.50 1.34 1.46 1.56 1.57 1.54 1.51 1.52 1.57 1.36 1.25 1.25 1.44 1.67 1.85 1.88 1.84 2.11 2.16 1.70 1.81 2.21
0.02 0.03 0.08 0.12 0.15 0.18 0.20 0.23 0.38 0.53 0.85 1.14 1.19 1.63 1.85 1.79 2.11 2.32 2.45 2.56 2.47 2.38 2.08 1.86 1.72 1.71 1.77 1.72 1.64 1.53 1.57 1.55 1.59 1.69 1.67 1.83 1.95 1.89 1.93 2.05 2.03 2.17 2.31 2.59 2.64 2.79 2.40 2.39 2.28
0.01 0.02 0.05 0.08 0.13 0.16 0.21 0.24 0.29 0.56 0.72 0.94 1.13 1.52 1.76 1.72 2.11 2.45 2.75 2.84 2.81 2.54 2.24 2.18 1.91 1.82 1.86 1.99 2.04 1.80 1.92 1.86 1.84 1.99 2.09 2.15 2.36 2.39 2.42 2.41 2.41 2.24 2.44 2.65 3.02 2.97 3.17 3.14 2.79
0.01 0.03 0.05 0.08 0.10 0.15 0.29 0.39 0.39 0.71 0.77 0.90 1.15 1.60 1.69 1.65 1.91 1.95 2.33 2.64 2.75 2.49 2.32 2.26 2.13 2.14 2.22 2.21 2.26 2.30 2.31 2.35 2.27 2.24 2.28 2.34 2.56 2.83 2.85 2.75 2.73 2.52 2.51 2.82 3.10 3.14 3.61 3.50 3.35
0.02 0.07 0.11 0.13 0.16 0.23 0.34 0.59 0.64 0.83 0.90 1.09 1.13 1.34 1.49 1.49 1.62 1.79 2.06 2.35 2.45 2.27 2.36 2.50 2.63 2.81 2.86 2.84 2.79 2.72 2.75 2.70 2.74 2.88 2.88 2.92 2.90 3.03 2.96 2.95 2.82 2.82 2.85 3.05 3.12 3.27 3.67 3.46 3.39
0.05 0.14 0.24 0.26 0.25 0.29 0.50 1.04 0.96 1.02 1.00 1.06 1.06 1.19 1.31 1.36 1.52 1.85 2.00 2.21 2.37 2.30 2.41 2.64 2.74 3.11 3.26 3.30 3.39 3.30 3.22 3.13 3.24 3.27 3.30 3.29 3.22 3.11 3.19 2.99 2.82 3.00 3.05 3.26 3.50 3.51 3.59 3.70 3.65
0.10 0.17 0.27 0.33 0.23 0.24 0.46 0.88 0.84 0.93 1.12 1.02 1.02 1.07 1.12 1.19 1.31 1.54 1.80 2.03 2.32 2.66 2.92 3.25 3.32 3.28 3.37 3.55 3.71 3.49 3.42 3.32 3.24 3.17 3.28 3.21 3.06 2.99 3.33 3.18 3.19 3.24 3.45 3.37 3.11 3.64 3.78 3.77 3.70
0.08 0.16 0.23 0.28 0.26 0.24 0.38 0.61 0.77 0.87 0.98 1.06 1.07 1.16 1.23 1.32 1.55 1.77 2.09 2.28 2.52 3.03 3.38 3.56 3.65 3.86 4.13 4.32 4.22 3.98 3.57 3.27 3.14 3.08 3.07 3.04 3.03 2.95 3.27 3.09 3.11 3.32 3.68 3.77 3.70 3.92 3.82 3.67 3.72
0.07 0.16 0.22 0.23 0.29 0.32 0.40 0.49 0.81 1.03 1.12 1.25 1.42 1.62 1.82 2.01 2.07 2.23 2.53 2.76 2.91 3.06 3.30 3.59 4.02 4.36 4.46 4.29 4.22 4.13 3.81 3.50 3.15 2.88 2.81 2.94 2.84 2.91 3.26 2.97 3.36 3.41 3.59 3.76 3.74 3.94 3.86 3.63 3.71
0.09 0.17 0.25 0.28 0.32 0.32 0.46 0.57 0.82 1.23 1.35 1.31 1.36 1.39 1.48 1.93 2.14 2.32 2.57 2.71 2.71 2.90 3.19 3.60 4.06 4.37 4.28 4.38 4.58 4.51 4.26 3.57 3.20 3.03 2.95 2.86 2.79 2.80 2.89 3.36 3.34 3.44 3.62 3.64 3.58 3.68 3.53 3.29 3.57
0.10 0.15 0.22 0.28 0.38 0.35 0.46 0.85 1.05 1.34 1.47 1.33 1.29 1.31 1.28 1.48 1.79 1.93 2.09 2.28 2.52 2.93 3.34 3.62 3.94 4.10 4.13 4.33 4.44 4.15 3.93 3.43 3.30 3.30 3.13 2.96 2.94 2.95 3.06 3.28 3.37 3.40 3.26 3.40 3.57 3.41 3.36 3.27 3.33
0.12 0.11 0.14 0.22 0.36 0.50 0.58 1.19 1.48 1.67 1.54 1.26 1.29 1.34 1.45 1.56 1.65 1.77 1.83 2.12 2.49 2.88 3.45 3.85 3.89 3.97 3.86 3.97 4.07 3.89 3.54 3.29 3.19 3.19 2.96 2.83 2.76 2.76 2.86 2.96 3.15 3.26 3.15 3.24 3.15 3.17 3.28 3.27 3.12
0.09 0.08 0.11 0.18 0.28 0.47 0.64 1.05 1.53 1.61 1.48 1.21 1.12 1.31 1.53 1.52 1.57 1.81 1.77 1.94 2.20 2.61 3.01 3.41 3.76 3.84 3.66 3.58 3.62 3.74 3.58 3.31 3.09 2.97 2.88 2.81 2.79 2.59 2.54 2.71 2.91 2.98 2.88 2.84 3.05 3.30 3.23 3.07 2.96
0.07 0.09 0.16 0.27 0.44 0.79 0.64 0.78 1.22 1.48 1.36 1.10 1.12 1.24 1.40 1.57 1.58 1.73 1.99 2.03 2.13 2.41 2.76 3.04 3.28 3.28 3.20 3.15 3.19 3.29 3.35 3.32 3.07 2.86 2.86 2.83 2.69 2.52 2.43 2.48 2.71 2.76 2.71 2.67 2.78 2.86 2.89 2.88 2.96
0.09 0.18 0.53 0.87 1.17 1.03 0.68 0.79 1.16 1.13 0.96 0.86 0.93 1.17 1.43 1.71 1.72 1.76 1.93 2.01 2.08 2.22 2.39 2.53 2.63 2.67 2.64 2.67 2.65 2.64 2.76 2.83 2.68 2.60 2.66 2.64 2.53 2.42 2.39 2.35 2.43 2.37 2.34 2.39 2.62 2.64 2.59 2.64 2.75
0.11 0.22 0.60 0.80 0.95 0.91 0.85 1.07 1.15 0.92 0.79 0.79 0.86 1.04 1.31 1.48 1.51 1.60 1.69 1.60 1.62 1.72 1.85 2.00 2.11 2.12 2.08 2.16 2.24 2.25 2.44 2.43 2.40 2.53 2.45 2.46 2.39 2.36 2.30 2.17 2.09 2.03 2.02 2.06 2.36 2.48 2.43 2.49 2.51
0.20 0.26 0.28 0.46 0.58 0.93 1.13 1.26 1.16 0.84 0.96 0.95 1.02 1.08 1.13 1.17 1.20 1.20 1.22 1.28 1.41 1.47 1.51 1.58 1.77 1.79 1.72 1.78 1.93 2.00 2.05 2.15 2.24 2.30 2.21 2.10 2.13 2.01 2.03 1.98 1.89 1.82 1.86 1.95 2.04 2.10 2.07 2.19 2.20
0.22 0.34 0.47 0.69 0.91 1.08 1.18 1.46 1.64 1.45 1.36 1.23 1.34 1.55 1.31 1.05 1.06 1.08 1.06 1.10 1.15 1.19 1.29 1.44 1.59 1.73 1.74 1.69 1.72 1.67 1.75 1.84 2.02 2.08 1.99 1.99 2.06 2.01 1.92 1.83 1.74 1.72 1.69 1.73 1.85 1.83 1.85 1.88 1.88
0.33 0.41 0.51 0.66 0.76 1.03 1.31 1.50 1.31 1.46 1.42 1.35 1.33 1.37 1.26 0.93 0.81 0.89 0.88 0.92 0.97 1.02 1.13 1.28 1.57 1.73 1.67 1.51 1.52 1.57 1.55 1.64 1.78 1.83 1.79 1.87 1.95 2.04 2.01 1.92 1.84 1.70 1.61 1.64 1.70 1.58 1.69 1.73 1.72
0.28 0.42 0.52 0.69 0.78 0.87 1.10 1.34 0.96 1.08 1.04 0.99 1.04 0.94 0.85 0.78 0.64 0.75 0.80 0.78 0.82 0.86 0.94 1.10 1.31 1.47 1.48 1.43 1.44 1.54 1.63 1.63 1.59 1.59 1.60 1.64 1.67 1.70 1.70 1.67 1.66 1.67 1.70 1.75 1.66 1.59 1.60 1.65 1.61

GEFSSGP_prec_meanprecacc_246.txt.gz
Total_Precipitation_Accumulation
0.05 0.15 0.35 0.65 1.11 1.70 1.88 1.32 0.96 0.84 0.74 0.67 0.54 0.47 0.55 0.83 1.11 1.79 1.58 1.13 0.78 0.70 0.72 0.77 0.79 0.65 0.56 0.57 0.61 0.63 0.63 0.59 0.53 0.54 0.69 0.81 1.02 1.11 1.07 1.09 1.32 1.59 1.66 1.59 1.54 1.27 1.06 1.05 0.94
0.07 0.18 0.38 0.81 1.54 2.24 1.93 1.11 0.84 0.78 0.64 0.61 0.58 0.55 0.65 0.77 0.77 0.96 1.18 1.00 0.65 0.56 0.60 0.57 0.62 0.60 0.53 0.52 0.54 0.56 0.57 0.56 0.57 0.63 0.75 0.80 0.94 1.08 1.16 1.25 1.47 1.64 1.55 1.48 1.24 1.01 0.90 0.82 0.74
0.14 0.26 0.42 0.86 1.34 1.92 1.54 0.93 0.67 0.64 0.58 0.65 0.81 0.72 0.84 0.96 0.92 1.06 1.04 0.80 0.62 0.53 0.52 0.62 0.63 0.58 0.54 0.48 0.53 0.55 0.56 0.57 0.59 0.66 0.74 0.79 0.90 1.09 1.22 1.25 1.40 1.41 1.29 1.20 1.04 0.93 0.78 0.68 0.63
0.15 0.32 0.49 0.74 0.88 0.86 0.89 0.87 0.65 0.73 0.75 0.68 0.79 1.00 1.02 0.95 0.91 1.01 1.04 0.84 0.61 0.56 0.53 0.59 0.61 0.57 0.56 0.49 0.48 0.53 0.55 0.61 0.64 0.74 0.83 0.86 0.97 1.10 1.14 1.20 1.34 1.27 1.19 1.11 1.01 0.87 0.71 0.61 0.59
0.13 0.32 0.55 0.69 0.81 0.65 0.64 0.73 0.63 0.69 0.73 0.71 0.76 1.17 1.34 1.16 0.92 0.92 0.94 0.87 0.67 0.77 0.73 0.67 0.68 0.65 0.60 0.49 0.46 0.50 0.55 0.64 0.68 0.76 0.83 0.84 0.90 0.96 1.02 1.17 1.25 1.16 1.10 0.98 0.92 0.82 0.67 0.67 0.71
0.12 0.29 0.55 0.63 0.69 0.55 0.58 0.64 0.62 0.65 0.73 0.80 0.95 1.34 1.58 1.41 1.25 1.18 1.15 0.99 0.79 0.83 0.84 0.79 0.80 0.75 0.70 0.57 0.53 0.57 0.62 0.68 0.72 0.74 0.75 0.77 0.79 0.81 0.91 1.10 1.16 1.02 0.88 0.82 0.86 0.82 0.72 0.70 0.76
0.10 0.22 0.43 0.50 0.59 0.60 0.56 0.52 0.58 0.73 0.95 1.04 1.16 1.52 1.66 1.92 1.77 1.54 1.50 1.38 1.11 1.00 0.93 0.87 0.83 0.73 0.76 0.76 0.66 0.68 0.74 0.78 0.76 0.75 0.73 0.71 0.73 0.78 0.87 1.04 1.09 0.94 0.77 0.72 0.75 0.76 0.70 0.65 0.71
0.07 0.15 0.26 0.40 0.51 0.59 0.50 0.46 0.46 0.61 0.99 1.00 1.05 1.32 1.74 1.75 1.76 1.96 1.93 1.92 1.62 1.40 1.14 0.97 0.99 1.01 0.91 0.87 0.81 0.86 0.90 0.90 0.88 0.81 0.80 0.79 0.83 0.85 0.94 0.98 0.99 0.91 0.79 0.71 0.69 0.71 0.66 0.68 0.72
0.07 0.16 0.22 0.32 0.42 0.43 0.34 0.36 0.40 0.53 0.71 0.89 1.08 1.11 1.31 1.27 1.49 1.92 2.18 2.38 2.27 1.75 1.48 1.22 1.10 1.09 1.03 0.97 1.01 1.24 1.23 1.12 1.06 1.03 1.02 1.02 1.13 1.13 1.15 1.02 1.05 1.01 0.96 0.96 0.95 0.96 0.90 0.86 0.82
0.07 0.16 0.16 0.19 0.26 0.27 0.23 0.27 0.32 0.56 0.99 1.37 1.50 1.35 1.31 1.38 1.75 2.07 2.13 2.18 2.35 1.91 1.57 1.49 1.36 1.22 1.15 1.00 1.12 1.48 1.37 1.26 1.32 1.38 1.27 1.40 1.53 1.54 1.18 1.21 1.37 1.45 1.50 1.48 1.56 1.66 1.37 1.16 1.29
0.04 0.08 0.11 0.15 0.17 0.19 0.21 0.25 0.31 0.53 1.04 1.40 1.57 1.54 1.57 1.59 1.96 2.33 2.45 2.25 2.31 2.16 1.81 1.69 1.55 1.46 1.46 1.55 1.37 1.48 1.58 1.60 1.60 1.59 1.62 1.69 1.49 1.37 1.33 1.51 1.73 1.89 1.91 1.88 2.15 2.21 1.75 1.85 2.25
0.02 0.03 0.08 0.12 0.15 0.18 0.20 0.23 0.39 0.54 0.87 1.18 1.25 1.65 1.88 1.82 2.15 2.39 2.50 2.62 2.53 2.42 2.10 1.87 1.73 1.73 1.80 1.75 1.68 1.57 1.61 1.59 1.65 1.75 1.72 1.89 2.01 1.94 1.97 2.10 2.07 2.22 2.35 2.62 2.67 2.84 2.46 2.47 2.33
0.02 0.03 0.06 0.08 0.13 0.17 0.21 0.25 0.29 0.57 0.74 0.96 1.18 1.58 1.80 1.77 2.15 2.51 2.81 2.88 2.85 2.58 2.25 2.19 1.93 1.83 1.88 2.01 2.07 1.83 1.95 1.89 1.87 2.04 2.14 2.19 2.41 2.43 2.46 2.45 2.46 2.29 2.49 2.69 3.08 3.04 3.23 3.21 2.85
0.02 0.04 0.06 0.08 0.10 0.15 0.29 0.40 0.39 0.72 0.78 0.91 1.17 1.63 1.72 1.70 1.95 1.98 2.36 2.67 2.78 2.53 2.34 2.28 2.14 2.15 2.23 2.23 2.29 2.33 2.34 2.38 2.30 2.28 2.32 2.38 2.60 2.88 2.90 2.79 2.77 2.58 2.57 2.89 3.20 3.20 3.67 3.56 3.41
0.03 0.08 0.12 0.14 0.17 0.24 0.34 0.60 0.64 0.84 0.90 1.10 1.16 1.37 1.52 1.52 1.66 1.82 2.09 2.37 2.48 2.29 2.38 2.51 2.63 2.81 2.87 2.86 2.81 2.74 2.76 2.72 2.76 2.92 2.93 2.98 2.95 3.07 3.01 3.00 2.85 2.86 2.90 3.10 3.19 3.32 3.72 3.50 3.43
0.06 0.15 0.25 0.27 0.26 0.30 0.51 1.06 0.97 1.02 1.00 1.07 1.09 1.24 1.33 1.38 1.54 1.87 2.02 2.23 2.39 2.31 2.42 2.65 2.75 3.12 3.28 3.32 3.41 3.32 3.23 3.15 3.27 3.30 3.34 3.34 3.26 3.14 3.22 3.03 2.85 3.03 3.09 3.30 3.56 3.56 3.65 3.76 3.70
0.11 0.18 0.28 0.34 0.24 0.25 0.47 0.89 0.85 0.94 1.14 1.03 1.03 1.08 1.13 1.20 1.33 1.55 1.81 2.04 2.33 2.67 2.94 3.26 3.34 3.30 3.39 3.58 3.74 3.51 3.45 3.36 3.27 3.20 3.32 3.26 3.10 3.02 3.35 3.21 3.22 3.26 3.48 3.41 3.15 3.69 3.85 3.81 3.74
0.10 0.17 0.25 0.29 0.27 0.25 0.39 0.62 0.78 0.88 0.99 1.08 1.08 1.17 1.25 1.36 1.60 1.80 2.11 2.30 2.53 3.05 3.43 3.64 3.67 3.88 4.16 4.35 4.25 4.01 3.60 3.30 3.17 3.11 3.10 3.08 3.07 2.99 3.30 3.12 3.13 3.35 3.72 3.81 3.74 3.95 3.85 3.70 3.76
0.09 0.18 0.24 0.25 0.30 0.34 0.43 0.51 0.82 1.05 1.15 1.28 1.44 1.69 1.87 2.03 2.09 2.25 2.54 2.77 2.93 3.09 3.32 3.63 4.05 4.38 4.48 4.31 4.23 4.17 3.86 3.54 3.18 2.90 2.86 2.98 2.89 2.96 3.30 3.00 3.40 3.46 3.62 3.79 3.79 3.99 3.89 3.66 3.74
0.11 0.19 0.26 0.30 0.33 0.32 0.47 0.59 0.84 1.28 1.43 1.38 1.41 1.44 1.50 1.95 2.15 2.34 2.59 2.72 2.72 2.91 3.21 3.63 4.08 4.39 4.29 4.39 4.60 4.55 4.31 3.62 3.25 3.07 3.02 2.96 2.87 2.85 2.94 3.41 3.39 3.48 3.66 3.68 3.62 3.73 3.58 3.32 3.61
0.13 0.17 0.24 0.29 0.39 0.37 0.49 0.88 1.08 1.37 1.52 1.40 1.36 1.37 1.32 1.51 1.81 1.95 2.11 2.30 2.53 2.94 3.35 3.62 3.95 4.12 4.15 4.35 4.48 4.18 3.98 3.49 3.36 3.35 3.19 3.03 3.00 2.99 3.10 3.33 3.42 3.44 3.29 3.44 3.62 3.46 3.41 3.31 3.37
0.13 0.12 0.15 0.24 0.39 0.55 0.62 1.23 1.52 1.70 1.58 1.32 1.35 1.40 1.49 1.60 1.68 1.81 1.85 2.14 2.50 2.89 3.46 3.86 3.91 3.99 3.88 3.99 4.09 3.92 3.58 3.33 3.24 3.23 3.00 2.89 2.81 2.81 2.91 3.03 3.21 3.31 3.20 3.29 3.20 3.23 3.34 3.32 3.18
0.10 0.10 0.12 0.21 0.33 0.54 0.69 1.08 1.56 1.64 1.53 1.25 1.15 1.35 1.58 1.56 1.61 1.84 1.78 1.95 2.21 2.62 3.02 3.42 3.77 3.85 3.66 3.59 3.63 3.77 3.61 3.34 3.12 3.02 2.92 2.85 2.82 2.65 2.62 2.75 2.96 3.07 2.96 2.90 3.11 3.35 3.28 3.12 3.03
0.08 0.10 0.18 0.30 0.51 0.88 0.69 0.82 1.25 1.50 1.39 1.14 1.15 1.29 1.45 1.60 1.60 1.76 2.01 2.05 2.15 2.43 2.77 3.05 3.29 3.29 3.21 3.16 3.20 3.31 3.37 3.34 3.10 2.89 2.90 2.86 2.72 2.56 2.49 2.53 2.80 2.88 2.80 2.74 2.86 2.92 2.95 2.93 3.03
0.09 0.19 0.55 0.90 1.21 1.09 0.72 0.81 1.18 1.14 0.99 0.90 0.96 1.22 1.48 1.74 1.74 1.78 1.95 2.03 2.10 2.23 2.40 2.54 2.64 2.68 2.65 2.68 2.66 2.66 2.77 2.84 2.71 2.64 2.70 2.70 2.58 2.46 2.43 2.40 2.51 2.44 2.40 2.47 2.71 2.71 2.64 2.68 2.80
0.12 0.22 0.60 0.82 0.98 0.94 0.87 1.09 1.17 0.93 0.81 0.81 0.89 1.07 1.35 1.51 1.53 1.62 1.70 1.62 1.63 1.73 1.86 2.01 2.12 2.14 2.09 2.17 2.25 2.26 2.45 2.45 2.43 2.56 2.48 2.51 2.45 2.41 2.34 2.24 2.17 2.10 2.09 2.13 2.43 2.55 2.48 2.53 2.55
0.20 0.26 0.28 0.47 0.60 0.97 1.17 1.29 1.18 0.87 0.99 0.98 1.06 1.11 1.16 1.20 1.22 1.21 1.24 1.30 1.43 1.49 1.52 1.60 1.78 1.80 1.74 1.79 1.95 2.01 2.06 2.17 2.26 2.33 2.24 2.15 2.18 2.08 2.11 2.08 1.98 1.91 1.96 2.03 2.11 2.16 2.13 2.24 2.26
0.22 0.34 0.47 0.70 0.94 1.11 1.24 1.50 1.69 1.48 1.39 1.26 1.37 1.59 1.34 1.07 1.07 1.10 1.07 1.12 1.16 1.21 1.30 1.46 1.60 1.74 1.75 1.70 1.74 1.69 1.77 1.88 2.06 2.11 2.02 2.04 2.10 2.06 1.98 1.91 1.82 1.79 1.80 1.83 1.93 1.90 1.92 1.93 1.95
0.33 0.41 0.52 0.66 0.78 1.05 1.38 1.56 1.36 1.50 1.45 1.38 1.36 1.40 1.28 0.94 0.83 0.91 0.89 0.93 0.98 1.04 1.14 1.30 1.59 1.74 1.68 1.52 1.54 1.60 1.58 1.68 1.80 1.85 1.81 1.91 2.00 2.12 2.07 1.98 1.91 1.77 1.69 1.73 1.77 1.67 1.77 1.81 1.80
0.28 0.42 0.53 0.70 0.78 0.88 1.12 1.36 1.00 1.14 1.10 1.07 1.13 0.98 0.88 0.81 0.66 0.77 0.82 0.79 0.83 0.88 0.96 1.12 1.33 1.49 1.50 1.46 1.47 1.57 1.66 1.66 1.63 1.63 1.65 1.70 1.74 1.78 1.78 1.75 1.75 1.74 1.77 1.82 1.74 1.68 1.68 1.73 1.69

GEFSSGP_prec_meanprecacc_252.txt.gz
Total_Precipitation_Accumulation
0.05 0.16 0.36 0.66 1.12 1.73 1.92 1.36 1.01 0.89 0.76 0.69 0.56 0.47 0.56 0.84 1.12 1.80 1.61 1.20 0.83 0.75 0.80 0.85 0.84 0.69 0.61 0.62 0.65 0.67 0.66 0.62 0.56 0.57 0.73 0.87 1.08 1.19 1.16 1.15 1.40 1.68 1.74 1.68 1.63 1.35 1.13 1.11 1.00
0.08 0.19 0.39 0.82 1.55 2.28 1.98 1.16 0.88 0.82 0.67 0.62 0.58 0.55 0.65 0.78 0.78 0.98 1.21 1.05 0.68 0.58 0.62 0.59 0.65 0.63 0.57 0.57 0.58 0.59 0.60 0.60 0.59 0.66 0.78 0.87 1.00 1.17 1.26 1.32 1.56 1.73 1.64 1.58 1.33 1.08 0.96 0.88 0.80
0.15 0.27 0.43 0.87 1.35 1.94 1.58 0.96 0.70 0.66 0.59 0.66 0.81 0.72 0.85 0.97 0.93 1.07 1.06 0.84 0.64 0.55 0.54 0.65 0.66 0.61 0.57 0.52 0.56 0.57 0.59 0.60 0.62 0.69 0.77 0.84 0.97 1.19 1.33 1.34 1.50 1.50 1.38 1.29 1.13 1.00 0.84 0.74 0.69
0.16 0.33 0.50 0.74 0.89 0.88 0.92 0.90 0.67 0.74 0.76 0.69 0.79 1.00 1.04 0.97 0.94 1.03 1.06 0.86 0.62 0.58 0.55 0.62 0.65 0.60 0.59 0.53 0.51 0.55 0.57 0.64 0.66 0.77 0.86 0.91 1.05 1.19 1.24 1.31 1.44 1.37 1.29 1.21 1.10 0.93 0.76 0.67 0.65
0.13 0.33 0.56 0.70 0.83 0.69 0.68 0.76 0.65 0.69 0.74 0.72 0.76 1.18 1.36 1.20 0.95 0.93 0.96 0.89 0.68 0.78 0.75 0.70 0.72 0.69 0.63 0.52 0.49 0.52 0.56 0.66 0.70 0.78 0.86 0.89 0.97 1.03 1.12 1.28 1.36 1.26 1.20 1.06 0.99 0.89 0.73 0.73 0.78
0.12 0.29 0.55 0.65 0.73 0.59 0.61 0.66 0.63 0.66 0.74 0.81 0.96 1.35 1.62 1.47 1.30 1.21 1.16 1.01 0.81 0.85 0.86 0.82 0.84 0.80 0.74 0.61 0.56 0.58 0.63 0.70 0.73 0.76 0.79 0.82 0.86 0.90 1.01 1.24 1.28 1.14 0.99 0.92 0.94 0.89 0.78 0.77 0.83
0.10 0.22 0.43 0.51 0.62 0.63 0.59 0.54 0.59 0.74 0.96 1.04 1.17 1.53 1.72 1.99 1.83 1.58 1.51 1.39 1.12 1.03 0.97 0.91 0.88 0.78 0.80 0.79 0.69 0.70 0.77 0.80 0.78 0.77 0.75 0.75 0.79 0.88 1.02 1.23 1.25 1.09 0.90 0.83 0.84 0.84 0.78 0.73 0.80
0.07 0.15 0.26 0.41 0.53 0.62 0.52 0.48 0.48 0.63 1.01 1.01 1.06 1.34 1.80 1.82 1.80 1.99 1.95 1.93 1.63 1.42 1.19 1.05 1.08 1.08 0.96 0.90 0.84 0.89 0.94 0.94 0.92 0.83 0.83 0.85 0.92 0.98 1.15 1.23 1.19 1.07 0.92 0.81 0.78 0.80 0.73 0.75 0.78
0.07 0.16 0.22 0.33 0.43 0.44 0.35 0.37 0.42 0.56 0.72 0.90 1.09 1.14 1.36 1.31 1.52 1.95 2.19 2.38 2.28 1.77 1.51 1.28 1.17 1.15 1.08 1.01 1.04 1.28 1.27 1.18 1.12 1.10 1.09 1.11 1.28 1.38 1.50 1.31 1.26 1.15 1.06 1.06 1.04 1.05 0.98 0.93 0.87
0.07 0.16 0.16 0.19 0.26 0.27 0.23 0.27 0.33 0.59 1.01 1.38 1.52 1.40 1.35 1.42 1.78 2.09 2.15 2.19 2.35 1.92 1.58 1.52 1.41 1.26 1.17 1.03 1.14 1.50 1.39 1.30 1.36 1.44 1.35 1.53 1.77 1.92 1.57 1.48 1.56 1.58 1.61 1.57 1.65 1.75 1.43 1.21 1.33
0.04 0.08 0.11 0.15 0.17 0.19 0.21 0.25 0.31 0.54 1.06 1.42 1.59 1.57 1.60 1.61 1.98 2.34 2.47 2.27 2.33 2.18 1.82 1.69 1.56 1.48 1.49 1.57 1.39 1.50 1.61 1.65 1.68 1.71 1.77 1.85 1.72 1.68 1.63 1.73 1.89 2.00 2.00 1.94 2.22 2.25 1.77 1.86 2.26
0.02 0.03 0.08 0.13 0.15 0.18 0.20 0.23 0.39 0.54 0.89 1.21 1.27 1.67 1.89 1.83 2.16 2.40 2.52 2.63 2.55 2.43 2.11 1.88 1.74 1.74 1.82 1.77 1.70 1.59 1.64 1.64 1.75 1.92 1.91 2.05 2.17 2.08 2.12 2.23 2.18 2.30 2.41 2.67 2.72 2.86 2.47 2.48 2.35
0.02 0.03 0.06 0.08 0.13 0.17 0.21 0.25 0.30 0.58 0.75 0.98 1.20 1.59 1.81 1.79 2.16 2.52 2.82 2.89 2.87 2.59 2.26 2.21 1.94 1.86 1.91 2.04 2.11 1.87 1.99 1.95 1.95 2.13 2.27 2.32 2.50 2.50 2.54 2.54 2.55 2.38 2.55 2.73 3.11 3.06 3.27 3.25 2.88
0.02 0.04 0.06 0.09 0.11 0.16 0.30 0.40 0.40 0.74 0.80 0.95 1.22 1.66 1.74 1.72 1.97 2.00 2.39 2.70 2.80 2.54 2.36 2.29 2.16 2.19 2.27 2.27 2.32 2.36 2.38 2.42 2.36 2.34 2.41 2.47 2.68 2.96 2.98 2.86 2.84 2.63 2.61 2.93 3.24 3.24 3.72 3.62 3.45
0.03 0.08 0.12 0.14 0.17 0.24 0.34 0.60 0.65 0.85 0.93 1.15 1.22 1.40 1.54 1.55 1.68 1.85 2.11 2.41 2.50 2.30 2.40 2.54 2.66 2.84 2.91 2.89 2.84 2.78 2.81 2.77 2.83 3.00 3.01 3.07 3.03 3.15 3.07 3.06 2.92 2.91 2.93 3.15 3.25 3.38 3.77 3.56 3.49
0.07 0.16 0.26 0.28 0.26 0.31 0.51 1.06 0.98 1.04 1.02 1.09 1.11 1.26 1.35 1.41 1.57 1.90 2.04 2.27 2.42 2.33 2.44 2.68 2.77 3.15 3.31 3.34 3.43 3.35 3.27 3.20 3.33 3.39 3.41 3.41 3.33 3.20 3.28 3.08 2.90 3.08 3.14 3.35 3.62 3.62 3.71 3.81 3.74
0.11 0.18 0.28 0.35 0.25 0.25 0.47 0.89 0.86 0.95 1.15 1.05 1.04 1.10 1.14 1.22 1.35 1.57 1.83 2.07 2.35 2.69 2.96 3.28 3.37 3.34 3.44 3.63 3.77 3.54 3.48 3.40 3.32 3.25 3.37 3.32 3.15 3.07 3.41 3.26 3.28 3.32 3.53 3.47 3.20 3.73 3.89 3.86 3.78
0.10 0.17 0.25 0.30 0.28 0.25 0.40 0.62 0.79 0.89 1.01 1.09 1.10 1.19 1.26 1.38 1.62 1.82 2.13 2.31 2.55 3.07 3.46 3.67 3.69 3.92 4.21 4.40 4.30 4.04 3.63 3.33 3.20 3.15 3.14 3.13 3.12 3.05 3.36 3.19 3.20 3.43 3.79 3.88 3.79 4.00 3.89 3.75 3.81
0.09 0.18 0.24 0.26 0.31 0.35 0.44 0.52 0.83 1.07 1.17 1.30 1.46 1.70 1.88 2.04 2.11 2.27 2.57 2.79 2.94 3.10 3.34 3.65 4.07 4.41 4.53 4.35 4.27 4.20 3.90 3.58 3.21 2.95 2.91 3.02 2.92 3.01 3.37 3.08 3.48 3.53 3.70 3.88 3.85 4.04 3.93 3.71 3.80
0.11 0.20 0.27 0.31 0.35 0.34 0.49 0.60 0.85 1.30 1.45 1.41 1.46 1.48 1.53 1.97 2.17 2.35 2.60 2.74 2.73 2.93 3.21 3.63 4.09 4.41 4.31 4.42 4.63 4.57 4.34 3.65 3.28 3.11 3.05 2.98 2.90 2.89 3.00 3.49 3.46 3.55 3.72 3.75 3.70 3.79 3.61 3.35 3.65
0.13 0.17 0.24 0.30 0.40 0.39 0.50 0.90 1.11 1.40 1.55 1.43 1.39 1.40 1.35 1.54 1.84 1.97 2.13 2.31 2.54 2.95 3.36 3.64 3.97 4.14 4.17 4.38 4.52 4.22 4.01 3.52 3.38 3.37 3.20 3.05 3.03 3.01 3.13 3.38 3.46 3.50 3.37 3.53 3.70 3.53 3.47 3.35 3.41
0.13 0.13 0.16 0.25 0.41 0.57 0.63 1.24 1.54 1.73 1.61 1.35 1.37 1.43 1.52 1.64 1.71 1.83 1.88 2.16 2.51 2.91 3.48 3.88 3.92 4.01 3.89 4.01 4.12 3.95 3.60 3.35 3.25 3.24 3.01 2.90 2.84 2.83 2.94 3.06 3.24 3.36 3.27 3.37 3.28 3.31 3.41 3.37 3.21
0.11 0.10 0.13 0.22 0.35 0.57 0.71 1.09 1.57 1.67 1.56 1.27 1.18 1.37 1.60 1.58 1.63 1.86 1.80 1.98 2.23 2.63 3.03 3.43 3.78 3.85 3.67 3.61 3.65 3.78 3.62 3.35 3.13 3.03 2.92 2.85 2.83 2.67 2.64 2.79 3.02 3.13 3.03 2.97 3.18 3.42 3.35 3.17 3.07
0.09 0.11 0.19 0.31 0.52 0.90 0.71 0.83 1.25 1.51 1.41 1.16 1.16 1.29 1.47 1.64 1.62 1.77 2.02 2.06 2.17 2.45 2.79 3.06 3.30 3.29 3.22 3.17 3.21 3.32 3.39 3.35 3.12 2.90 2.92 2.88 2.74 2.59 2.53 2.59 2.86 2.95 2.88 2.83 2.93 2.99 3.01 2.98 3.09
0.09 0.19 0.56 0.91 1.23 1.10 0.73 0.82 1.18 1.14 1.00 0.91 0.97 1.22 1.50 1.76 1.76 1.79 1.97 2.06 2.14 2.26 2.41 2.55 2.66 2.70 2.66 2.70 2.67 2.67 2.80 2.86 2.73 2.67 2.73 2.74 2.62 2.49 2.48 2.46 2.57 2.51 2.48 2.57 2.78 2.78 2.69 2.73 2.86
0.12 0.22 0.61 0.83 1.00 0.95 0.88 1.10 1.17 0.93 0.81 0.82 0.90 1.08 1.37 1.53 1.56 1.65 1.74 1.66 1.67 1.74 1.87 2.02 2.13 2.15 2.10 2.18 2.26 2.27 2.47 2.47 2.46 2.59 2.52 2.55 2.48 2.44 2.38 2.30 2.24 2.17 2.17 2.22 2.52 2.61 2.54 2.59 2.60
0.20 0.26 0.29 0.48 0.60 0.97 1.18 1.29 1.19 0.87 1.00 0.99 1.07 1.12 1.17 1.21 1.24 1.24 1.26 1.33 1.46 1.51 1.54 1.62 1.80 1.82 1.75 1.80 1.96 2.02 2.08 2.19 2.29 2.37 2.29 2.19 2.22 2.11 2.14 2.13 2.03 1.97 2.03 2.13 2.21 2.23 2.21 2.31 2.31
0.22 0.34 0.47 0.70 0.94 1.11 1.24 1.51 1.69 1.49 1.40 1.27 1.38 1.59 1.35 1.08 1.09 1.11 1.08 1.13 1.19 1.23 1.33 1.49 1.62 1.77 1.77 1.72 1.76 1.70 1.79 1.89 2.08 2.15 2.05 2.07 2.15 2.10 2.01 1.95 1.86 1.85 1.87 1.90 2.00 1.97 2.02 2.01 2.01
0.33 0.42 0.52 0.67 0.78 1.05 1.38 1.56 1.36 1.51 1.46 1.39 1.37 1.41 1.29 0.96 0.85 0.93 0.91 0.95 1.00 1.05 1.16 1.32 1.61 1.77 1.70 1.54 1.56 1.63 1.60 1.70 1.84 1.89 1.84 1.94 2.04 2.17 2.14 2.03 1.95 1.82 1.74 1.78 1.83 1.73 1.85 1.88 1.87
0.28 0.42 0.53 0.70 0.78 0.88 1.12 1.37 1.00 1.14 1.11 1.08 1.14 1.00 0.91 0.83 0.69 0.79 0.84 0.82 0.85 0.90 0.99 1.14 1.34 1.51 1.52 1.48 1.50 1.60 1.68 1.69 1.65 1.65 1.68 1.75 1.78 1.84 1.85 1.80 1.79 1.78 1.83 1.90 1.82 1.75 1.75 1.79 1.75